Wetterdaten: Montag, 22.12.2014
Datum Zeit Temp. Aussen +5cm Feuchte Auss Luftdruck Regen Sonnenschein Regendauer Solar Windben
22.12.2014 00:00 8,1 C 6,7 C 90 % 1022,5 hPa 0,0 l/m 0 min 0 min 0 W/m 37,7 km/h (5 Bft)
22.12.2014 00:02 8,1 C 6,7 C 90 % 1022,3 hPa 0,0 l/m 0 min 0 min 0 W/m 37,7 km/h (5 Bft)
22.12.2014 00:05 8,1 C 6,7 C 90 % 1022,2 hPa 0,0 l/m 0 min 0 min 0 W/m 29,3 km/h (5 Bft)
22.12.2014 00:06 8,1 C 6,7 C 90 % 1022,2 hPa 0,0 l/m 0 min 0 min 0 W/m 29,3 km/h (5 Bft)
22.12.2014 00:08 8,1 C 6,7 C 90 % 1022,2 hPa 0,0 l/m 0 min 0 min 0 W/m 39,7 km/h (6 Bft)
22.12.2014 00:10 8,1 C 6,7 C 90 % 1022,2 hPa 0,0 l/m 0 min 0 min 0 W/m 43,9 km/h (6 Bft)
22.12.2014 00:12 8,1 C 6,7 C 90 % 1022,1 hPa 0,0 l/m 0 min 0 min 0 W/m 35,6 km/h (5 Bft)
22.12.2014 00:14 8,1 C 6,7 C 90 % 1022,3 hPa 0,0 l/m 0 min 0 min 0 W/m 41,8 km/h (6 Bft)
22.12.2014 00:16 8,1 C 6,7 C 90 % 1022,4 hPa 0,0 l/m 0 min 0 min 0 W/m 43,9 km/h (6 Bft)
22.12.2014 00:18 8,1 C 6,7 C 90 % 1022,2 hPa 0,0 l/m 0 min 0 min 0 W/m 46,0 km/h (6 Bft)
22.12.2014 00:20 8,0 C 6,7 C 89 % 1022,1 hPa 0,0 l/m 0 min 0 min 0 W/m 39,7 km/h (6 Bft)
22.12.2014 00:22 8,0 C 6,7 C 89 % 1022,1 hPa 0,0 l/m 0 min 0 min 0 W/m 35,6 km/h (5 Bft)
22.12.2014 00:24 8,1 C 6,7 C 89 % 1022,0 hPa 0,0 l/m 0 min 0 min 0 W/m 43,9 km/h (6 Bft)
22.12.2014 00:26 8,1 C 6,7 C 89 % 1022,1 hPa 0,0 l/m 0 min 0 min 0 W/m 31,4 km/h (5 Bft)
22.12.2014 00:28 8,0 C 6,7 C 89 % 1022,0 hPa 0,0 l/m 0 min 0 min 0 W/m 43,9 km/h (6 Bft)
22.12.2014 00:30 8,0 C 6,7 C 89 % 1022,1 hPa 0,0 l/m 0 min 0 min 0 W/m 41,8 km/h (6 Bft)
22.12.2014 00:32 8,0 C 6,7 C 89 % 1022,0 hPa 0,0 l/m 0 min 0 min 0 W/m 35,6 km/h (5 Bft)
22.12.2014 00:34 8,0 C 6,7 C 90 % 1022,0 hPa 0,0 l/m 0 min 0 min 0 W/m 35,6 km/h (5 Bft)
22.12.2014 00:36 8,0 C 6,7 C 90 % 1021,8 hPa 0,0 l/m 0 min 0 min 0 W/m 41,8 km/h (6 Bft)
22.12.2014 00:38 8,0 C 6,7 C 90 % 1021,7 hPa 0,0 l/m 0 min 0 min 0 W/m 31,4 km/h (5 Bft)
22.12.2014 00:40 8,0 C 6,7 C 90 % 1021,6 hPa 0,0 l/m 0 min 0 min 0 W/m 33,5 km/h (5 Bft)
22.12.2014 00:42 8,0 C 6,7 C 90 % 1021,7 hPa 0,0 l/m 0 min 0 min 0 W/m 39,7 km/h (6 Bft)
22.12.2014 00:44 8,0 C 6,7 C 90 % 1021,8 hPa 0,0 l/m 0 min 0 min 0 W/m 33,5 km/h (5 Bft)
22.12.2014 00:46 8,0 C 6,7 C 90 % 1021,8 hPa 0,0 l/m 0 min 0 min 0 W/m 35,6 km/h (5 Bft)
22.12.2014 00:48 8,0 C 6,7 C 90 % 1021,8 hPa 0,0 l/m 0 min 0 min 0 W/m 29,3 km/h (5 Bft)
22.12.2014 00:50 8,0 C 6,7 C 90 % 1021,7 hPa 0,0 l/m 0 min 0 min 0 W/m 46,0 km/h (6 Bft)
22.12.2014 00:52 8,0 C 6,7 C 90 % 1021,8 hPa 0,0 l/m 0 min 0 min 0 W/m 33,5 km/h (5 Bft)
22.12.2014 00:54 8,1 C 6,7 C 90 % 1021,7 hPa 0,0 l/m 0 min 0 min 0 W/m 43,9 km/h (6 Bft)
22.12.2014 00:56 8,1 C 6,7 C 90 % 1021,7 hPa 0,0 l/m 0 min 0 min 0 W/m 41,8 km/h (6 Bft)
22.12.2014 00:58 8,1 C 6,7 C 90 % 1021,6 hPa 0,0 l/m 0 min 0 min 0 W/m 39,7 km/h (6 Bft)
22.12.2014 01:00 8,1 C 6,7 C 90 % 1021,4 hPa 0,0 l/m 0 min 0 min 0 W/m 46,0 km/h (6 Bft)
22.12.2014 01:02 8,1 C 6,7 C 90 % 1021,3 hPa 0,0 l/m 0 min 0 min 0 W/m 52,3 km/h (7 Bft)
22.12.2014 01:04 8,1 C 6,7 C 90 % 1021,4 hPa 0,0 l/m 0 min 0 min 0 W/m 46,0 km/h (6 Bft)
22.12.2014 01:06 8,1 C 6,7 C 90 % 1021,3 hPa 0,0 l/m 0 min 0 min 0 W/m 50,2 km/h (7 Bft)
22.12.2014 01:08 8,1 C 6,7 C 90 % 1021,3 hPa 0,0 l/m 0 min 0 min 0 W/m 46,0 km/h (6 Bft)
22.12.2014 01:10 8,2 C 6,7 C 90 % 1021,4 hPa 0,0 l/m 0 min 0 min 0 W/m 48,1 km/h (6 Bft)
22.12.2014 01:12 8,2 C 6,7 C 89 % 1021,3 hPa 0,0 l/m 0 min 0 min 0 W/m 48,1 km/h (6 Bft)
22.12.2014 01:14 8,2 C 6,7 C 90 % 1021,4 hPa 0,0 l/m 0 min 0 min 0 W/m 43,9 km/h (6 Bft)
22.12.2014 01:16 8,2 C 6,7 C 90 % 1021,2 hPa 0,0 l/m 0 min 0 min 0 W/m 43,9 km/h (6 Bft)
22.12.2014 01:18 8,2 C 6,7 C 90 % 1021,2 hPa 0,0 l/m 0 min 0 min 0 W/m 43,9 km/h (6 Bft)
22.12.2014 01:20 8,2 C 6,7 C 89 % 1021,2 hPa 0,0 l/m 0 min 0 min 0 W/m 46,0 km/h (6 Bft)
22.12.2014 01:22 8,2 C 6,7 C 89 % 1021,2 hPa 0,0 l/m 0 min 0 min 0 W/m 37,7 km/h (5 Bft)
22.12.2014 01:24 8,2 C 6,7 C 89 % 1021,3 hPa 0,0 l/m 0 min 0 min 0 W/m 43,9 km/h (6 Bft)
22.12.2014 01:26 8,2 C 7,2 C 89 % 1021,1 hPa 0,0 l/m 0 min 0 min 0 W/m 46,0 km/h (6 Bft)
22.12.2014 01:28 8,3 C 7,2 C 89 % 1021,2 hPa 0,0 l/m 0 min 0 min 0 W/m 33,5 km/h (5 Bft)
22.12.2014 01:30 8,3 C 7,2 C 89 % 1021,1 hPa 0,0 l/m 0 min 0 min 0 W/m 37,7 km/h (5 Bft)
22.12.2014 01:32 8,3 C 7,2 C 89 % 1021,2 hPa 0,0 l/m 0 min 0 min 0 W/m 37,7 km/h (5 Bft)
22.12.2014 01:34 8,3 C 6,7 C 89 % 1021,2 hPa 0,0 l/m 0 min 0 min 0 W/m 50,2 km/h (7 Bft)
22.12.2014 01:36 8,3 C 7,2 C 89 % 1021,1 hPa 0,0 l/m 0 min 0 min 0 W/m 52,3 km/h (7 Bft)
22.12.2014 01:38 8,3 C 7,2 C 89 % 1021,1 hPa 0,0 l/m 0 min 0 min 0 W/m 43,9 km/h (6 Bft)
22.12.2014 01:40 8,3 C 7,2 C 89 % 1021,2 hPa 0,0 l/m 0 min 0 min 0 W/m 50,2 km/h (7 Bft)
22.12.2014 01:42 8,3 C 7,2 C 89 % 1021,1 hPa 0,0 l/m 0 min 0 min 0 W/m 48,1 km/h (6 Bft)
22.12.2014 01:44 8,3 C 7,2 C 89 % 1021,1 hPa 0,0 l/m 0 min 0 min 0 W/m 41,8 km/h (6 Bft)
22.12.2014 01:46 8,3 C 7,2 C 89 % 1021,0 hPa 0,0 l/m 0 min 0 min 0 W/m 39,7 km/h (6 Bft)
22.12.2014 01:48 8,3 C 7,2 C 89 % 1021,0 hPa 0,0 l/m 0 min 0 min 0 W/m 35,6 km/h (5 Bft)
22.12.2014 01:50 8,3 C 7,2 C 89 % 1021,1 hPa 0,0 l/m 0 min 0 min 0 W/m 37,7 km/h (5 Bft)
22.12.2014 01:52 8,3 C 7,2 C 89 % 1021,0 hPa 0,0 l/m 0 min 0 min 0 W/m 46,0 km/h (6 Bft)
22.12.2014 01:54 8,4 C 7,2 C 89 % 1021,0 hPa 0,0 l/m 0 min 0 min 0 W/m 39,7 km/h (6 Bft)
22.12.2014 01:56 8,4 C 7,2 C 89 % 1021,1 hPa 0,0 l/m 0 min 0 min 0 W/m 46,0 km/h (6 Bft)
22.12.2014 01:58 8,4 C 7,2 C 89 % 1021,0 hPa 0,0 l/m 0 min 0 min 0 W/m 41,8 km/h (6 Bft)
22.12.2014 02:00 8,4 C 7,2 C 89 % 1021,0 hPa 0,0 l/m 0 min 0 min 0 W/m 52,3 km/h (7 Bft)
22.12.2014 02:02 8,4 C 7,2 C 89 % 1021,1 hPa 0,0 l/m 0 min 0 min 0 W/m 58,6 km/h (7 Bft)
22.12.2014 02:04 8,4 C 7,2 C 89 % 1021,1 hPa 0,0 l/m 0 min 0 min 0 W/m 46,0 km/h (6 Bft)
22.12.2014 02:06 8,4 C 7,2 C 89 % 1021,0 hPa 0,0 l/m 0 min 0 min 0 W/m 41,8 km/h (6 Bft)
22.12.2014 02:08 8,4 C 7,2 C 89 % 1021,0 hPa 0,0 l/m 0 min 0 min 0 W/m 39,7 km/h (6 Bft)
22.12.2014 02:10 8,4 C 7,2 C 89 % 1021,0 hPa 0,0 l/m 0 min 0 min 0 W/m 46,0 km/h (6 Bft)
22.12.2014 02:12 8,4 C 7,2 C 89 % 1021,0 hPa 0,0 l/m 0 min 0 min 0 W/m 54,4 km/h (7 Bft)
22.12.2014 02:14 8,4 C 7,2 C 89 % 1021,1 hPa 0,0 l/m 0 min 0 min 0 W/m 54,4 km/h (7 Bft)
22.12.2014 02:16 8,4 C 7,2 C 89 % 1021,1 hPa 0,0 l/m 0 min 0 min 0 W/m 50,2 km/h (7 Bft)
22.12.2014 02:18 8,4 C 7,2 C 89 % 1021,0 hPa 0,0 l/m 0 min 0 min 0 W/m 48,1 km/h (6 Bft)
22.12.2014 02:20 8,4 C 7,2 C 89 % 1021,1 hPa 0,0 l/m 0 min 0 min 0 W/m 50,2 km/h (7 Bft)
22.12.2014 02:22 8,4 C 7,2 C 89 % 1021,0 hPa 0,0 l/m 0 min 0 min 0 W/m 48,1 km/h (6 Bft)
22.12.2014 02:24 8,4 C 7,2 C 89 % 1021,0 hPa 0,0 l/m 0 min 0 min 0 W/m 37,7 km/h (5 Bft)
22.12.2014 02:26 8,4 C 7,2 C 89 % 1021,0 hPa 0,0 l/m 0 min 0 min 0 W/m 50,2 km/h (7 Bft)
22.12.2014 02:28 8,4 C 7,2 C 89 % 1021,0 hPa 0,0 l/m 0 min 0 min 0 W/m 43,9 km/h (6 Bft)
22.12.2014 02:30 8,4 C 7,2 C 89 % 1021,0 hPa 0,0 l/m 0 min 0 min 0 W/m 48,1 km/h (6 Bft)
22.12.2014 02:32 8,4 C 7,2 C 89 % 1020,9 hPa 0,0 l/m 0 min 0 min 0 W/m 39,7 km/h (6 Bft)
22.12.2014 02:34 8,4 C 7,2 C 89 % 1021,0 hPa 0,0 l/m 0 min 0 min 0 W/m 48,1 km/h (6 Bft)
22.12.2014 02:36 8,4 C 7,2 C 89 % 1021,0 hPa 0,0 l/m 0 min 0 min 0 W/m 39,7 km/h (6 Bft)
22.12.2014 02:38 8,4 C 7,2 C 89 % 1021,1 hPa 0,0 l/m 0 min 0 min 0 W/m 52,3 km/h (7 Bft)
22.12.2014 02:40 8,4 C 7,2 C 89 % 1020,9 hPa 0,0 l/m 0 min 0 min 0 W/m 41,8 km/h (6 Bft)
22.12.2014 02:42 8,4 C 7,2 C 89 % 1021,0 hPa 0,0 l/m 0 min 0 min 0 W/m 54,4 km/h (7 Bft)
22.12.2014 02:44 8,4 C 7,2 C 89 % 1020,9 hPa 0,0 l/m 0 min 0 min 0 W/m 54,4 km/h (7 Bft)
22.12.2014 02:46 8,5 C 7,2 C 89 % 1020,9 hPa 0,0 l/m 0 min 0 min 0 W/m 48,1 km/h (6 Bft)
22.12.2014 02:48 8,5 C 7,2 C 89 % 1021,0 hPa 0,0 l/m 0 min 0 min 0 W/m 43,9 km/h (6 Bft)
22.12.2014 02:50 8,5 C 7,2 C 89 % 1021,0 hPa 0,0 l/m 0 min 0 min 0 W/m 50,2 km/h (7 Bft)
22.12.2014 02:52 8,5 C 7,2 C 89 % 1020,9 hPa 0,0 l/m 0 min 0 min 0 W/m 43,9 km/h (6 Bft)
22.12.2014 02:54 8,5 C 7,2 C 89 % 1020,9 hPa 0,0 l/m 0 min 0 min 0 W/m 46,0 km/h (6 Bft)
22.12.2014 02:56 8,5 C 7,2 C 89 % 1021,0 hPa 0,0 l/m 0 min 0 min 0 W/m 58,6 km/h (7 Bft)
22.12.2014 02:58 8,5 C 7,2 C 89 % 1020,9 hPa 0,0 l/m 0 min 0 min 0 W/m 50,2 km/h (7 Bft)
22.12.2014 03:00 8,5 C 7,2 C 89 % 1020,9 hPa 0,0 l/m 0 min 0 min 0 W/m 35,6 km/h (5 Bft)
22.12.2014 03:02 8,5 C 7,2 C 90 % 1020,8 hPa 0,0 l/m 0 min 0 min 0 W/m 48,1 km/h (6 Bft)
22.12.2014 03:04 8,6 C 7,2 C 90 % 1020,8 hPa 0,0 l/m 0 min 0 min 0 W/m 43,9 km/h (6 Bft)
22.12.2014 03:06 8,6 C 7,2 C 90 % 1020,9 hPa 0,0 l/m 0 min 0 min 0 W/m 37,7 km/h (5 Bft)
22.12.2014 03:08 8,5 C 7,2 C 90 % 1020,6 hPa 0,0 l/m 0 min 0 min 0 W/m 41,8 km/h (6 Bft)
22.12.2014 03:10 8,5 C 7,2 C 90 % 1020,8 hPa 0,0 l/m 0 min 0 min 0 W/m 41,8 km/h (6 Bft)
22.12.2014 03:12 8,5 C 7,2 C 90 % 1020,6 hPa 0,0 l/m 0 min 0 min 0 W/m 37,7 km/h (5 Bft)
22.12.2014 03:14 8,6 C 7,2 C 90 % 1020,7 hPa 0,0 l/m 0 min 0 min 0 W/m 41,8 km/h (6 Bft)
22.12.2014 03:16 8,5 C 7,2 C 90 % 1020,7 hPa 0,0 l/m 0 min 0 min 0 W/m 46,0 km/h (6 Bft)
22.12.2014 03:18 8,6 C 7,2 C 90 % 1020,9 hPa 0,0 l/m 0 min 0 min 0 W/m 50,2 km/h (7 Bft)
22.12.2014 03:20 8,5 C 7,2 C 90 % 1020,7 hPa 0,0 l/m 0 min 0 min 0 W/m 52,3 km/h (7 Bft)
22.12.2014 03:22 8,5 C 7,2 C 90 % 1020,6 hPa 0,0 l/m 0 min 0 min 0 W/m 58,6 km/h (7 Bft)
22.12.2014 03:24 8,5 C 7,2 C 90 % 1020,6 hPa 0,0 l/m 0 min 0 min 0 W/m 33,5 km/h (5 Bft)
22.12.2014 03:26 8,5 C 7,2 C 90 % 1020,6 hPa 0,0 l/m 0 min 0 min 0 W/m 46,0 km/h (6 Bft)
22.12.2014 03:28 8,5 C 7,2 C 90 % 1020,7 hPa 0,0 l/m 0 min 0 min 0 W/m 41,8 km/h (6 Bft)
22.12.2014 03:30 8,5 C 7,2 C 90 % 1020,7 hPa 0,0 l/m 0 min 0 min 0 W/m 41,8 km/h (6 Bft)
22.12.2014 03:32 8,5 C 7,2 C 91 % 1020,6 hPa 0,0 l/m 0 min 0 min 0 W/m 43,9 km/h (6 Bft)
22.12.2014 03:34 8,5 C 7,2 C 91 % 1020,7 hPa 0,0 l/m 0 min 0 min 0 W/m 43,9 km/h (6 Bft)
22.12.2014 03:36 8,5 C 7,2 C 91 % 1020,6 hPa 0,0 l/m 0 min 0 min 0 W/m 46,0 km/h (6 Bft)
22.12.2014 03:38 8,5 C 7,2 C 91 % 1020,6 hPa 0,0 l/m 0 min 0 min 0 W/m 54,4 km/h (7 Bft)
22.12.2014 03:40 8,5 C 7,2 C 91 % 1020,4 hPa 0,0 l/m 0 min 0 min 0 W/m 39,7 km/h (6 Bft)
22.12.2014 03:42 8,5 C 7,2 C 91 % 1020,6 hPa 0,0 l/m 0 min 0 min 0 W/m 46,0 km/h (6 Bft)
22.12.2014 03:44 8,5 C 7,2 C 91 % 1020,5 hPa 0,0 l/m 0 min 0 min 0 W/m 37,7 km/h (5 Bft)
22.12.2014 03:46 8,5 C 7,2 C 91 % 1020,5 hPa 0,0 l/m 0 min 0 min 0 W/m 39,7 km/h (6 Bft)
22.12.2014 03:48 8,5 C 7,2 C 91 % 1020,4 hPa 0,0 l/m 0 min 0 min 0 W/m 46,0 km/h (6 Bft)
22.12.2014 03:50 8,5 C 7,2 C 91 % 1020,4 hPa 0,0 l/m 0 min 0 min 0 W/m 58,6 km/h (7 Bft)
22.12.2014 03:52 8,5 C 7,2 C 91 % 1020,4 hPa 0,0 l/m 0 min 0 min 0 W/m 41,8 km/h (6 Bft)
22.12.2014 03:54 8,5 C 7,2 C 91 % 1020,5 hPa 0,0 l/m 0 min 0 min 0 W/m 39,7 km/h (6 Bft)
22.12.2014 03:56 8,5 C 7,2 C 91 % 1020,2 hPa 0,0 l/m 0 min 0 min 0 W/m 43,9 km/h (6 Bft)
22.12.2014 03:58 8,5 C 7,2 C 91 % 1020,3 hPa 0,0 l/m 0 min 0 min 0 W/m 37,7 km/h (5 Bft)
22.12.2014 04:00 8,5 C 7,2 C 91 % 1020,3 hPa 0,0 l/m 0 min 0 min 0 W/m 41,8 km/h (6 Bft)
22.12.2014 04:02 8,5 C 7,2 C 91 % 1020,3 hPa 0,0 l/m 0 min 0 min 0 W/m 48,1 km/h (6 Bft)
22.12.2014 04:04 8,5 C 7,2 C 91 % 1020,3 hPa 0,0 l/m 0 min 0 min 0 W/m 43,9 km/h (6 Bft)
22.12.2014 04:06 8,5 C 7,2 C 91 % 1020,3 hPa 0,0 l/m 0 min 0 min 0 W/m 37,7 km/h (5 Bft)
22.12.2014 04:08 8,5 C 7,2 C 91 % 1020,3 hPa 0,0 l/m 0 min 0 min 0 W/m 43,9 km/h (6 Bft)
22.12.2014 04:10 8,6 C 7,2 C 91 % 1020,2 hPa 0,0 l/m 0 min 0 min 0 W/m 37,7 km/h (5 Bft)
22.12.2014 04:12 8,5 C 7,2 C 91 % 1020,0 hPa 0,0 l/m 0 min 0 min 0 W/m 64,9 km/h (8 Bft)
22.12.2014 04:14 8,6 C 7,2 C 91 % 1020,0 hPa 0,0 l/m 0 min 0 min 0 W/m 48,1 km/h (6 Bft)
22.12.2014 04:16 8,6 C 7,2 C 91 % 1020,1 hPa 0,0 l/m 0 min 0 min 0 W/m 37,7 km/h (5 Bft)
22.12.2014 04:18 8,6 C 7,2 C 91 % 1020,0 hPa 0,0 l/m 0 min 0 min 0 W/m 48,1 km/h (6 Bft)
22.12.2014 04:20 8,6 C 7,2 C 91 % 1020,0 hPa 0,0 l/m 0 min 0 min 0 W/m 48,1 km/h (6 Bft)
22.12.2014 04:22 8,6 C 7,2 C 91 % 1020,0 hPa 0,0 l/m 0 min 0 min 0 W/m 46,0 km/h (6 Bft)
22.12.2014 04:24 8,6 C 7,2 C 90 % 1020,1 hPa 0,0 l/m 0 min 0 min 0 W/m 64,9 km/h (8 Bft)
22.12.2014 04:26 8,6 C 7,2 C 90 % 1019,9 hPa 0,0 l/m 0 min 0 min 0 W/m 41,8 km/h (6 Bft)
22.12.2014 04:28 8,6 C 7,2 C 90 % 1019,9 hPa 0,0 l/m 0 min 0 min 0 W/m 46,0 km/h (6 Bft)
22.12.2014 04:30 8,6 C 7,2 C 90 % 1020,1 hPa 0,0 l/m 0 min 0 min 0 W/m 52,3 km/h (7 Bft)
22.12.2014 04:32 8,6 C 7,2 C 90 % 1019,9 hPa 0,0 l/m 0 min 0 min 0 W/m 46,0 km/h (6 Bft)
22.12.2014 04:34 8,6 C 7,2 C 90 % 1019,9 hPa 0,0 l/m 0 min 0 min 0 W/m 52,3 km/h (7 Bft)
22.12.2014 04:36 8,6 C 7,2 C 90 % 1019,9 hPa 0,0 l/m 0 min 0 min 0 W/m 56,5 km/h (7 Bft)
22.12.2014 04:38 8,6 C 7,2 C 90 % 1020,0 hPa 0,0 l/m 0 min 0 min 0 W/m 50,2 km/h (7 Bft)
22.12.2014 04:40 8,6 C 7,2 C 90 % 1019,9 hPa 0,0 l/m 0 min 0 min 0 W/m 46,0 km/h (6 Bft)
22.12.2014 04:42 8,6 C 7,2 C 90 % 1019,9 hPa 0,0 l/m 0 min 0 min 0 W/m 39,7 km/h (6 Bft)
22.12.2014 04:44 8,6 C 7,2 C 91 % 1019,9 hPa 0,0 l/m 0 min 0 min 0 W/m 52,3 km/h (7 Bft)
22.12.2014 04:46 8,6 C 7,2 C 91 % 1019,9 hPa 0,0 l/m 0 min 0 min 0 W/m 48,1 km/h (6 Bft)
22.12.2014 04:48 8,6 C 7,2 C 91 % 1019,8 hPa 0,0 l/m 0 min 0 min 0 W/m 48,1 km/h (6 Bft)
22.12.2014 04:50 8,6 C 7,2 C 91 % 1019,8 hPa 0,0 l/m 0 min 0 min 0 W/m 35,6 km/h (5 Bft)
22.12.2014 04:52 8,5 C 7,2 C 91 % 1019,8 hPa 0,0 l/m 0 min 0 min 0 W/m 50,2 km/h (7 Bft)
22.12.2014 04:54 8,5 C 7,2 C 91 % 1019,8 hPa 0,0 l/m 0 min 0 min 0 W/m 43,9 km/h (6 Bft)
22.12.2014 04:56 8,5 C 7,2 C 91 % 1019,8 hPa 0,0 l/m 0 min 0 min 0 W/m 43,9 km/h (6 Bft)
22.12.2014 04:58 8,5 C 7,2 C 91 % 1019,9 hPa 0,0 l/m 0 min 0 min 0 W/m 56,5 km/h (7 Bft)
22.12.2014 05:00 8,5 C 7,2 C 91 % 1019,9 hPa 0,0 l/m 0 min 0 min 0 W/m 37,7 km/h (5 Bft)
22.12.2014 05:02 8,4 C 7,2 C 91 % 1020,0 hPa 0,0 l/m 0 min 0 min 0 W/m 58,6 km/h (7 Bft)
22.12.2014 05:04 8,4 C 7,2 C 91 % 1019,7 hPa 0,0 l/m 0 min 0 min 0 W/m 39,7 km/h (6 Bft)
22.12.2014 05:06 8,5 C 7,2 C 91 % 1020,0 hPa 0,0 l/m 0 min 0 min 0 W/m 56,5 km/h (7 Bft)
22.12.2014 05:08 8,5 C 7,2 C 92 % 1019,8 hPa 0,0 l/m 0 min 0 min 0 W/m 46,0 km/h (6 Bft)
22.12.2014 05:10 8,5 C 7,2 C 92 % 1019,8 hPa 0,0 l/m 0 min 0 min 0 W/m 52,3 km/h (7 Bft)
22.12.2014 05:12 8,5 C 7,2 C 92 % 1019,8 hPa 0,0 l/m 0 min 0 min 0 W/m 50,2 km/h (7 Bft)
22.12.2014 05:14 8,5 C 7,2 C 91 % 1020,0 hPa 0,0 l/m 0 min 0 min 0 W/m 46,0 km/h (6 Bft)
22.12.2014 05:16 8,5 C 7,2 C 91 % 1020,0 hPa 0,0 l/m 0 min 0 min 0 W/m 43,9 km/h (6 Bft)
22.12.2014 05:18 8,6 C 7,2 C 91 % 1020,0 hPa 0,0 l/m 0 min 0 min 0 W/m 52,3 km/h (7 Bft)
22.12.2014 05:20 8,6 C 7,2 C 91 % 1019,9 hPa 0,0 l/m 0 min 0 min 0 W/m 43,9 km/h (6 Bft)
22.12.2014 05:22 8,6 C 7,2 C 91 % 1020,0 hPa 0,0 l/m 0 min 0 min 0 W/m 41,8 km/h (6 Bft)
22.12.2014 05:24 8,6 C 7,2 C 92 % 1019,9 hPa 0,0 l/m 0 min 0 min 0 W/m 48,1 km/h (6 Bft)
22.12.2014 05:26 8,6 C 7,2 C 91 % 1019,8 hPa 0,0 l/m 0 min 0 min 0 W/m 39,7 km/h (6 Bft)
22.12.2014 05:28 8,6 C 7,2 C 91 % 1019,8 hPa 0,0 l/m 0 min 0 min 0 W/m 41,8 km/h (6 Bft)
22.12.2014 05:30 8,6 C 7,2 C 91 % 1019,8 hPa 0,0 l/m 0 min 0 min 0 W/m 48,1 km/h (6 Bft)
22.12.2014 05:32 8,6 C 7,2 C 91 % 1019,5 hPa 0,0 l/m 0 min 0 min 0 W/m 50,2 km/h (7 Bft)
22.12.2014 05:34 8,6 C 7,2 C 91 % 1019,7 hPa 0,0 l/m 0 min 0 min 0 W/m 48,1 km/h (6 Bft)
22.12.2014 05:36 8,6 C 7,2 C 91 % 1019,6 hPa 0,0 l/m 0 min 0 min 0 W/m 37,7 km/h (5 Bft)
22.12.2014 05:38 8,6 C 7,2 C 91 % 1019,6 hPa 0,0 l/m 0 min 0 min 0 W/m 46,0 km/h (6 Bft)
22.12.2014 05:40 8,6 C 7,2 C 91 % 1019,6 hPa 0,0 l/m 0 min 0 min 0 W/m 43,9 km/h (6 Bft)
22.12.2014 05:42 8,6 C 7,2 C 91 % 1019,6 hPa 0,0 l/m 0 min 0 min 0 W/m 41,8 km/h (6 Bft)
22.12.2014 05:44 8,6 C 7,2 C 91 % 1019,7 hPa 0,0 l/m 0 min 0 min 0 W/m 35,6 km/h (5 Bft)
22.12.2014 05:46 8,6 C 7,2 C 91 % 1019,8 hPa 0,0 l/m 0 min 0 min 0 W/m 43,9 km/h (6 Bft)
22.12.2014 05:48 8,6 C 7,2 C 91 % 1019,8 hPa 0,0 l/m 0 min 0 min 0 W/m 48,1 km/h (6 Bft)
22.12.2014 05:50 8,6 C 7,2 C 91 % 1019,8 hPa 0,0 l/m 0 min 0 min 0 W/m 35,6 km/h (5 Bft)
22.12.2014 05:52 8,6 C 7,2 C 91 % 1019,8 hPa 0,0 l/m 0 min 0 min 0 W/m 48,1 km/h (6 Bft)
22.12.2014 05:54 8,6 C 7,2 C 91 % 1019,7 hPa 0,0 l/m 0 min 0 min 0 W/m 41,8 km/h (6 Bft)
22.12.2014 05:56 8,7 C 7,2 C 91 % 1019,4 hPa 0,0 l/m 0 min 0 min 0 W/m 50,2 km/h (7 Bft)
22.12.2014 05:58 8,6 C 7,2 C 91 % 1019,6 hPa 0,0 l/m 0 min 0 min 0 W/m 39,7 km/h (6 Bft)
22.12.2014 06:00 8,7 C 7,2 C 91 % 1019,6 hPa 0,0 l/m 0 min 0 min 0 W/m 41,8 km/h (6 Bft)
22.12.2014 06:02 8,7 C 7,2 C 91 % 1019,5 hPa 0,0 l/m 0 min 0 min 0 W/m 29,3 km/h (5 Bft)
22.12.2014 06:05 8,7 C 7,2 C 91 % 1019,4 hPa 0,0 l/m 0 min 0 min 0 W/m 46,0 km/h (6 Bft)
22.12.2014 06:06 8,7 C 7,2 C 91 % 1019,4 hPa 0,0 l/m 0 min 0 min 0 W/m 46,0 km/h (6 Bft)
22.12.2014 06:08 8,7 C 7,2 C 91 % 1019,8 hPa 0,0 l/m 0 min 0 min 0 W/m 48,1 km/h (6 Bft)
22.12.2014 06:10 8,7 C 7,2 C 91 % 1019,6 hPa 0,0 l/m 0 min 0 min 0 W/m 37,7 km/h (5 Bft)
22.12.2014 06:12 8,7 C 7,2 C 91 % 1019,6 hPa 0,0 l/m 0 min 0 min 0 W/m 54,4 km/h (7 Bft)
22.12.2014 06:14 8,7 C 7,2 C 91 % 1019,4 hPa 0,0 l/m 0 min 0 min 0 W/m 46,0 km/h (6 Bft)
22.12.2014 06:16 8,7 C 7,2 C 91 % 1019,4 hPa 0,0 l/m 0 min 0 min 0 W/m 37,7 km/h (5 Bft)
22.12.2014 06:18 8,7 C 7,2 C 91 % 1019,4 hPa 0,0 l/m 0 min 0 min 0 W/m 54,4 km/h (7 Bft)
22.12.2014 06:20 8,7 C 7,2 C 91 % 1019,5 hPa 0,0 l/m 0 min 0 min 0 W/m 48,1 km/h (6 Bft)
22.12.2014 06:22 8,7 C 7,2 C 91 % 1019,4 hPa 0,0 l/m 0 min 0 min 0 W/m 50,2 km/h (7 Bft)
22.12.2014 06:24 8,7 C 7,2 C 91 % 1019,4 hPa 0,0 l/m 0 min 0 min 0 W/m 48,1 km/h (6 Bft)
22.12.2014 06:26 8,7 C 7,2 C 91 % 1019,4 hPa 0,0 l/m 0 min 0 min 0 W/m 48,1 km/h (6 Bft)
22.12.2014 06:28 8,7 C 7,2 C 91 % 1019,5 hPa 0,0 l/m 0 min 0 min 0 W/m 41,8 km/h (6 Bft)
22.12.2014 06:30 8,7 C 7,2 C 91 % 1019,5 hPa 0,0 l/m 0 min 0 min 0 W/m 43,9 km/h (6 Bft)
22.12.2014 06:32 8,7 C 7,2 C 91 % 1019,4 hPa 0,0 l/m 0 min 0 min 0 W/m 46,0 km/h (6 Bft)
22.12.2014 06:34 8,7 C 7,2 C 91 % 1019,8 hPa 0,0 l/m 0 min 0 min 0 W/m 46,0 km/h (6 Bft)
22.12.2014 06:36 8,7 C 7,2 C 91 % 1019,4 hPa 0,0 l/m 0 min 0 min 0 W/m 48,1 km/h (6 Bft)
22.12.2014 06:38 8,7 C 7,2 C 91 % 1019,4 hPa 0,0 l/m 0 min 0 min 0 W/m 46,0 km/h (6 Bft)
22.12.2014 06:40 8,7 C 7,2 C 91 % 1019,4 hPa 0,0 l/m 0 min 0 min 0 W/m 43,9 km/h (6 Bft)
22.12.2014 06:42 8,7 C 7,2 C 91 % 1019,5 hPa 0,0 l/m 0 min 0 min 0 W/m 41,8 km/h (6 Bft)
22.12.2014 06:44 8,7 C 7,2 C 91 % 1019,5 hPa 0,0 l/m 0 min 0 min 0 W/m 46,0 km/h (6 Bft)
22.12.2014 06:46 8,7 C 7,2 C 91 % 1019,4 hPa 0,0 l/m 0 min 0 min 0 W/m 43,9 km/h (6 Bft)
22.12.2014 06:48 8,7 C 7,2 C 91 % 1019,4 hPa 0,0 l/m 0 min 0 min 0 W/m 46,0 km/h (6 Bft)
22.12.2014 06:50 8,7 C 7,2 C 91 % 1019,4 hPa 0,0 l/m 0 min 0 min 0 W/m 46,0 km/h (6 Bft)
22.12.2014 06:52 8,7 C 7,2 C 91 % 1019,5 hPa 0,0 l/m 0 min 0 min 0 W/m 46,0 km/h (6 Bft)
22.12.2014 06:54 8,7 C 7,2 C 91 % 1019,5 hPa 0,0 l/m 0 min 0 min 0 W/m 46,0 km/h (6 Bft)
22.12.2014 06:56 8,6 C 7,2 C 92 % 1019,6 hPa 0,0 l/m 0 min 0 min 0 W/m 46,0 km/h (6 Bft)
22.12.2014 06:58 8,6 C 7,2 C 92 % 1019,5 hPa 0,0 l/m 0 min 0 min 0 W/m 48,1 km/h (6 Bft)
22.12.2014 07:00 8,6 C 7,2 C 92 % 1019,4 hPa 0,0 l/m 0 min 0 min 0 W/m 35,6 km/h (5 Bft)
22.12.2014 07:02 8,6 C 7,2 C 92 % 1019,5 hPa 0,0 l/m 0 min 0 min 0 W/m 62,8 km/h (8 Bft)
22.12.2014 07:04 8,6 C 7,2 C 92 % 1019,4 hPa 0,0 l/m 0 min 0 min 0 W/m 50,2 km/h (7 Bft)
22.12.2014 07:06 8,6 C 7,2 C 92 % 1019,3 hPa 0,0 l/m 0 min 0 min 0 W/m 43,9 km/h (6 Bft)
22.12.2014 07:08 8,6 C 7,2 C 92 % 1019,4 hPa 0,0 l/m 0 min 0 min 0 W/m 54,4 km/h (7 Bft)
22.12.2014 07:10 8,6 C 7,2 C 92 % 1019,4 hPa 0,0 l/m 0 min 0 min 0 W/m 48,1 km/h (6 Bft)
22.12.2014 07:12 8,5 C 7,2 C 92 % 1019,5 hPa 0,0 l/m 0 min 0 min 0 W/m 48,1 km/h (6 Bft)
22.12.2014 07:14 8,5 C 7,2 C 92 % 1019,4 hPa 0,0 l/m 0 min 0 min 0 W/m 48,1 km/h (6 Bft)
22.12.2014 07:16 8,5 C 7,2 C 92 % 1019,4 hPa 0,0 l/m 0 min 0 min 0 W/m 39,7 km/h (6 Bft)
22.12.2014 07:18 8,5 C 7,2 C 92 % 1019,5 hPa 0,0 l/m 0 min 0 min 0 W/m 46,0 km/h (6 Bft)
22.12.2014 07:20 8,5 C 7,2 C 92 % 1019,4 hPa 0,0 l/m 0 min 0 min 0 W/m 46,0 km/h (6 Bft)
22.12.2014 07:22 8,4 C 7,2 C 92 % 1019,4 hPa 0,0 l/m 0 min 0 min 0 W/m 46,0 km/h (6 Bft)
22.12.2014 07:24 8,4 C 7,2 C 92 % 1019,4 hPa 0,0 l/m 0 min 0 min 0 W/m 39,7 km/h (6 Bft)
22.12.2014 07:26 8,4 C 7,2 C 92 % 1019,5 hPa 0,0 l/m 0 min 0 min 0 W/m 41,8 km/h (6 Bft)
22.12.2014 07:28 8,4 C 7,2 C 92 % 1019,3 hPa 0,0 l/m 0 min 0 min 0 W/m 37,7 km/h (5 Bft)
22.12.2014 07:30 8,4 C 7,2 C 92 % 1019,4 hPa 0,0 l/m 0 min 0 min 0 W/m 31,4 km/h (5 Bft)
22.12.2014 07:32 8,4 C 7,2 C 92 % 1019,4 hPa 0,0 l/m 0 min 0 min 0 W/m 50,2 km/h (7 Bft)
22.12.2014 07:34 8,4 C 7,2 C 92 % 1019,4 hPa 0,0 l/m 0 min 0 min 0 W/m 46,0 km/h (6 Bft)
22.12.2014 07:36 8,4 C 7,2 C 92 % 1019,4 hPa 0,0 l/m 0 min 0 min 0 W/m 39,7 km/h (6 Bft)
22.12.2014 07:38 8,4 C 7,2 C 92 % 1019,4 hPa 0,0 l/m 0 min 0 min 0 W/m 48,1 km/h (6 Bft)
22.12.2014 07:40 8,4 C 7,2 C 92 % 1019,4 hPa 0,0 l/m 0 min 0 min 0 W/m 41,8 km/h (6 Bft)
22.12.2014 07:42 8,4 C 7,2 C 93 % 1019,4 hPa 0,0 l/m 0 min 0 min 0 W/m 54,4 km/h (7 Bft)
22.12.2014 07:44 8,4 C 7,2 C 93 % 1019,3 hPa 0,0 l/m 0 min 0 min 0 W/m 50,2 km/h (7 Bft)
22.12.2014 07:46 8,4 C 7,2 C 93 % 1019,4 hPa 0,0 l/m 0 min 0 min 0 W/m 43,9 km/h (6 Bft)
22.12.2014 07:48 8,4 C 7,2 C 92 % 1019,4 hPa 0,0 l/m 0 min 0 min 0 W/m 46,0 km/h (6 Bft)
22.12.2014 07:50 8,4 C 7,2 C 92 % 1019,4 hPa 0,0 l/m 0 min 0 min 0 W/m 60,7 km/h (7 Bft)
22.12.2014 07:52 8,4 C 7,2 C 92 % 1019,3 hPa 0,0 l/m 0 min 0 min 0 W/m 39,7 km/h (6 Bft)
22.12.2014 07:54 8,4 C 7,2 C 92 % 1019,4 hPa 0,0 l/m 0 min 0 min 0 W/m 37,7 km/h (5 Bft)
22.12.2014 07:56 8,4 C 7,2 C 92 % 1019,3 hPa 0,0 l/m 0 min 0 min 0 W/m 48,1 km/h (6 Bft)
22.12.2014 07:58 8,4 C 7,2 C 92 % 1019,2 hPa 0,0 l/m 0 min 0 min 0 W/m 60,7 km/h (7 Bft)
22.12.2014 08:00 8,4 C 7,2 C 92 % 1019,2 hPa 0,0 l/m 0 min 0 min 0 W/m 43,9 km/h (6 Bft)
22.12.2014 08:02 8,5 C 7,2 C 92 % 1019,4 hPa 0,0 l/m 0 min 0 min 0 W/m 54,4 km/h (7 Bft)
22.12.2014 08:04 8,5 C 7,2 C 92 % 1019,4 hPa 0,0 l/m 0 min 0 min 0 W/m 46,0 km/h (6 Bft)
22.12.2014 08:06 8,5 C 7,2 C 92 % 1019,1 hPa 0,0 l/m 0 min 0 min 0 W/m 43,9 km/h (6 Bft)
22.12.2014 08:08 8,5 C 7,2 C 92 % 1019,4 hPa 0,0 l/m 0 min 0 min 0 W/m 54,4 km/h (7 Bft)
22.12.2014 08:10 8,5 C 7,2 C 92 % 1019,3 hPa 0,0 l/m 0 min 0 min 0 W/m 46,0 km/h (6 Bft)
22.12.2014 08:12 8,5 C 7,2 C 92 % 1019,3 hPa 0,0 l/m 0 min 0 min 0 W/m 50,2 km/h (7 Bft)
22.12.2014 08:14 8,5 C 7,2 C 92 % 1019,3 hPa 0,0 l/m 0 min 0 min 0 W/m 56,5 km/h (7 Bft)
22.12.2014 08:16 8,5 C 7,2 C 92 % 1019,3 hPa 0,0 l/m 0 min 0 min 0 W/m 29,3 km/h (5 Bft)
22.12.2014 08:18 8,5 C 7,2 C 92 % 1019,3 hPa 0,0 l/m 0 min 0 min 0 W/m 46,0 km/h (6 Bft)
22.12.2014 08:20 8,5 C 7,2 C 92 % 1019,3 hPa 0,0 l/m 0 min 0 min 0 W/m 41,8 km/h (6 Bft)
22.12.2014 08:22 8,5 C 7,2 C 92 % 1019,4 hPa 0,0 l/m 0 min 0 min 0 W/m 60,7 km/h (7 Bft)
22.12.2014 08:24 8,6 C 7,2 C 92 % 1019,3 hPa 0,0 l/m 0 min 0 min 0 W/m 54,4 km/h (7 Bft)
22.12.2014 08:26 8,6 C 7,2 C 92 % 1019,4 hPa 0,0 l/m 0 min 0 min 0 W/m 46,0 km/h (6 Bft)
22.12.2014 08:28 8,6 C 7,2 C 92 % 1019,4 hPa 0,0 l/m 0 min 0 min 0 W/m 46,0 km/h (6 Bft)
22.12.2014 08:30 8,6 C 7,2 C 92 % 1019,6 hPa 0,0 l/m 0 min 0 min 0 W/m 43,9 km/h (6 Bft)
22.12.2014 08:32 8,6 C 7,2 C 92 % 1019,4 hPa 0,0 l/m 0 min 0 min 0 W/m 52,3 km/h (7 Bft)
22.12.2014 08:34 8,6 C 7,2 C 92 % 1019,5 hPa 0,0 l/m 0 min 0 min 0 W/m 43,9 km/h (6 Bft)
22.12.2014 08:36 8,5 C 7,2 C 92 % 1019,5 hPa 0,0 l/m 0 min 0 min 0 W/m 46,0 km/h (6 Bft)
22.12.2014 08:38 8,6 C 7,2 C 92 % 1019,5 hPa 0,0 l/m 0 min 0 min 0 W/m 43,9 km/h (6 Bft)
22.12.2014 08:40 8,6 C 7,2 C 92 % 1019,6 hPa 0,0 l/m 0 min 0 min 0 W/m 50,2 km/h (7 Bft)
22.12.2014 08:42 8,5 C 7,2 C 91 % 1019,5 hPa 0,0 l/m 0 min 0 min 0 W/m 43,9 km/h (6 Bft)
22.12.2014 08:44 8,5 C 7,2 C 91 % 1019,5 hPa 0,0 l/m 0 min 0 min 0 W/m 41,8 km/h (6 Bft)
22.12.2014 08:46 8,5 C 7,2 C 91 % 1019,5 hPa 0,0 l/m 0 min 0 min 0 W/m 46,0 km/h (6 Bft)
22.12.2014 08:48 8,5 C 7,2 C 91 % 1019,4 hPa 0,0 l/m 0 min 0 min 0 W/m 43,9 km/h (6 Bft)
22.12.2014 08:50 8,5 C 7,2 C 91 % 1019,5 hPa 0,0 l/m 0 min 0 min 0 W/m 48,1 km/h (6 Bft)
22.12.2014 08:52 8,5 C 7,2 C 91 % 1019,6 hPa 0,0 l/m 0 min 0 min 0 W/m 54,4 km/h (7 Bft)
22.12.2014 08:54 8,5 C 7,2 C 91 % 1019,5 hPa 0,0 l/m 0 min 0 min 0 W/m 48,1 km/h (6 Bft)
22.12.2014 08:56 8,5 C 7,2 C 91 % 1019,5 hPa 0,0 l/m 0 min 0 min 0 W/m 54,4 km/h (7 Bft)
22.12.2014 08:58 8,5 C 7,2 C 91 % 1019,2 hPa 0,0 l/m 0 min 0 min 3 W/m 41,8 km/h (6 Bft)
22.12.2014 09:00 8,5 C 7,2 C 91 % 1019,3 hPa 0,0 l/m 0 min 0 min 5 W/m 56,5 km/h (7 Bft)
22.12.2014 09:02 8,5 C 7,2 C 91 % 1019,4 hPa 0,0 l/m 0 min 0 min 1 W/m 54,4 km/h (7 Bft)
22.12.2014 09:04 8,5 C 7,2 C 91 % 1019,4 hPa 0,0 l/m 0 min 0 min 3 W/m 52,3 km/h (7 Bft)
22.12.2014 09:06 8,5 C 7,2 C 91 % 1019,5 hPa 0,0 l/m 0 min 0 min 5 W/m 50,2 km/h (7 Bft)
22.12.2014 09:08 8,4 C 7,2 C 91 % 1019,4 hPa 0,0 l/m 0 min 0 min 5 W/m 50,2 km/h (7 Bft)
22.12.2014 09:10 8,4 C 7,2 C 91 % 1019,4 hPa 0,0 l/m 0 min 0 min 5 W/m 46,0 km/h (6 Bft)
22.12.2014 09:12 8,4 C 7,2 C 91 % 1019,6 hPa 0,0 l/m 0 min 0 min 6 W/m 50,2 km/h (7 Bft)
22.12.2014 09:14 8,4 C 7,2 C 91 % 1019,5 hPa 0,0 l/m 0 min 0 min 7 W/m 50,2 km/h (7 Bft)
22.12.2014 09:16 8,4 C 7,2 C 91 % 1019,4 hPa 0,0 l/m 0 min 0 min 8 W/m 50,2 km/h (7 Bft)
22.12.2014 09:18 8,4 C 7,2 C 91 % 1019,4 hPa 0,0 l/m 0 min 0 min 9 W/m 50,2 km/h (7 Bft)
22.12.2014 09:20 8,4 C 7,2 C 91 % 1019,5 hPa 0,0 l/m 0 min 0 min 9 W/m 56,5 km/h (7 Bft)
22.12.2014 09:22 8,4 C 7,2 C 91 % 1019,5 hPa 0,0 l/m 0 min 0 min 9 W/m 37,7 km/h (5 Bft)
22.12.2014 09:24 8,4 C 7,2 C 91 % 1019,4 hPa 0,0 l/m 0 min 0 min 10 W/m 39,7 km/h (6 Bft)
22.12.2014 09:26 8,4 C 7,2 C 91 % 1019,4 hPa 0,0 l/m 0 min 0 min 11 W/m 37,7 km/h (5 Bft)
22.12.2014 09:28 8,4 C 7,2 C 91 % 1019,5 hPa 0,0 l/m 0 min 0 min 10 W/m 41,8 km/h (6 Bft)
22.12.2014 09:30 8,4 C 7,2 C 91 % 1019,7 hPa 0,0 l/m 0 min 0 min 10 W/m 58,6 km/h (7 Bft)
22.12.2014 09:32 8,4 C 7,2 C 91 % 1019,5 hPa 0,0 l/m 0 min 0 min 12 W/m 31,4 km/h (5 Bft)
22.12.2014 09:34 8,4 C 7,2 C 91 % 1019,5 hPa 0,0 l/m 0 min 0 min 12 W/m 54,4 km/h (7 Bft)
22.12.2014 09:36 8,4 C 7,2 C 91 % 1019,5 hPa 0,0 l/m 0 min 0 min 11 W/m 48,1 km/h (6 Bft)
22.12.2014 09:38 8,4 C 7,2 C 91 % 1019,5 hPa 0,0 l/m 0 min 0 min 13 W/m 46,0 km/h (6 Bft)
22.12.2014 09:40 8,4 C 7,2 C 91 % 1019,7 hPa 0,0 l/m 0 min 0 min 12 W/m 48,1 km/h (6 Bft)
22.12.2014 09:42 8,4 C 7,2 C 91 % 1019,7 hPa 0,0 l/m 0 min 0 min 12 W/m 60,7 km/h (7 Bft)
22.12.2014 09:44 8,4 C 7,2 C 91 % 1019,6 hPa 0,0 l/m 0 min 0 min 13 W/m 48,1 km/h (6 Bft)
22.12.2014 09:46 8,5 C 7,2 C 91 % 1019,8 hPa 0,0 l/m 0 min 0 min 13 W/m 56,5 km/h (7 Bft)
22.12.2014 09:48 8,5 C 7,2 C 91 % 1019,6 hPa 0,0 l/m 0 min 0 min 12 W/m 46,0 km/h (6 Bft)
22.12.2014 09:50 8,5 C 7,2 C 91 % 1019,6 hPa 0,0 l/m 0 min 0 min 12 W/m 52,3 km/h (7 Bft)
22.12.2014 09:52 8,5 C 7,2 C 91 % 1019,5 hPa 0,0 l/m 0 min 0 min 13 W/m 46,0 km/h (6 Bft)
22.12.2014 09:54 8,5 C 7,2 C 91 % 1019,4 hPa 0,0 l/m 0 min 0 min 13 W/m 52,3 km/h (7 Bft)
22.12.2014 09:56 8,5 C 7,2 C 91 % 1019,5 hPa 0,0 l/m 0 min 0 min 12 W/m 48,1 km/h (6 Bft)
22.12.2014 09:58 8,5 C 7,2 C 91 % 1019,4 hPa 0,0 l/m 0 min 0 min 13 W/m 58,6 km/h (7 Bft)
22.12.2014 10:00 8,6 C 7,2 C 91 % 1019,6 hPa 0,0 l/m 0 min 0 min 15 W/m 54,4 km/h (7 Bft)
22.12.2014 10:02 8,6 C 7,2 C 91 % 1019,4 hPa 0,0 l/m 0 min 0 min 14 W/m 46,0 km/h (6 Bft)
22.12.2014 10:04 8,6 C 7,2 C 91 % 1019,6 hPa 0,0 l/m 0 min 0 min 12 W/m 48,1 km/h (6 Bft)
22.12.2014 10:06 8,6 C 7,2 C 91 % 1019,9 hPa 0,0 l/m 0 min 0 min 13 W/m 58,6 km/h (7 Bft)
22.12.2014 10:08 8,6 C 7,2 C 91 % 1019,7 hPa 0,0 l/m 0 min 0 min 14 W/m 43,9 km/h (6 Bft)
22.12.2014 10:10 8,6 C 7,2 C 91 % 1019,6 hPa 0,0 l/m 0 min 0 min 14 W/m 50,2 km/h (7 Bft)
22.12.2014 10:12 8,6 C 7,2 C 91 % 1019,6 hPa 0,0 l/m 0 min 0 min 15 W/m 75,3 km/h (9 Bft)
22.12.2014 10:14 8,6 C 7,2 C 91 % 1019,5 hPa 0,0 l/m 0 min 0 min 16 W/m 41,8 km/h (6 Bft)
22.12.2014 10:16 8,6 C 7,2 C 91 % 1019,4 hPa 0,0 l/m 0 min 0 min 18 W/m 46,0 km/h (6 Bft)
22.12.2014 10:18 8,6 C 7,2 C 91 % 1019,6 hPa 0,0 l/m 0 min 0 min 17 W/m 52,3 km/h (7 Bft)
22.12.2014 10:20 8,6 C 7,2 C 91 % 1019,8 hPa 0,0 l/m 0 min 0 min 14 W/m 54,4 km/h (7 Bft)
22.12.2014 10:22 8,6 C 7,2 C 91 % 1019,7 hPa 0,0 l/m 0 min 0 min 14 W/m 46,0 km/h (6 Bft)
22.12.2014 10:24 8,6 C 7,2 C 91 % 1019,7 hPa 0,0 l/m 0 min 0 min 15 W/m 52,3 km/h (7 Bft)
22.12.2014 10:26 8,6 C 7,2 C 91 % 1019,8 hPa 0,0 l/m 0 min 0 min 16 W/m 43,9 km/h (6 Bft)
22.12.2014 10:28 8,6 C 7,2 C 91 % 1019,7 hPa 0,0 l/m 0 min 0 min 18 W/m 41,8 km/h (6 Bft)
22.12.2014 10:30 8,6 C 7,2 C 91 % 1019,5 hPa 0,0 l/m 0 min 0 min 21 W/m 35,6 km/h (5 Bft)
22.12.2014 10:32 8,6 C 7,2 C 91 % 1019,4 hPa 0,0 l/m 0 min 0 min 20 W/m 41,8 km/h (6 Bft)
22.12.2014 10:34 8,6 C 7,2 C 91 % 1019,4 hPa 0,0 l/m 0 min 0 min 23 W/m 50,2 km/h (7 Bft)
22.12.2014 10:36 8,6 C 7,2 C 91 % 1019,5 hPa 0,0 l/m 0 min 0 min 25 W/m 48,1 km/h (6 Bft)
22.12.2014 10:38 8,6 C 7,2 C 91 % 1019,4 hPa 0,0 l/m 0 min 0 min 26 W/m 48,1 km/h (6 Bft)
22.12.2014 10:40 8,6 C 7,2 C 91 % 1019,4 hPa 0,0 l/m 0 min 0 min 22 W/m 41,8 km/h (6 Bft)
22.12.2014 10:42 8,6 C 7,2 C 91 % 1019,6 hPa 0,0 l/m 0 min 0 min 21 W/m 43,9 km/h (6 Bft)
22.12.2014 10:44 8,5 C 7,2 C 91 % 1019,6 hPa 0,0 l/m 0 min 0 min 22 W/m 54,4 km/h (7 Bft)
22.12.2014 10:46 8,5 C 7,2 C 92 % 1019,6 hPa 0,0 l/m 0 min 0 min 22 W/m 39,7 km/h (6 Bft)
22.12.2014 10:48 8,5 C 7,2 C 92 % 1019,6 hPa 0,0 l/m 0 min 0 min 21 W/m 46,0 km/h (6 Bft)
22.12.2014 10:50 8,5 C 7,2 C 92 % 1019,5 hPa 0,0 l/m 0 min 0 min 24 W/m 35,6 km/h (5 Bft)
22.12.2014 10:52 8,5 C 7,2 C 92 % 1019,5 hPa 0,0 l/m 0 min 0 min 25 W/m 39,7 km/h (6 Bft)
22.12.2014 10:54 8,5 C 7,2 C 92 % 1019,5 hPa 0,0 l/m 0 min 0 min 21 W/m 46,0 km/h (6 Bft)
22.12.2014 10:56 8,5 C 7,2 C 92 % 1019,6 hPa 0,0 l/m 0 min 0 min 18 W/m 48,1 km/h (6 Bft)
22.12.2014 10:58 8,5 C 7,2 C 92 % 1019,6 hPa 0,0 l/m 0 min 0 min 21 W/m 39,7 km/h (6 Bft)
22.12.2014 11:00 8,5 C 7,2 C 92 % 1019,4 hPa 0,0 l/m 0 min 0 min 28 W/m 37,7 km/h (5 Bft)
22.12.2014 11:02 8,5 C 7,2 C 92 % 1019,5 hPa 0,0 l/m 0 min 0 min 25 W/m 46,0 km/h (6 Bft)
22.12.2014 11:04 8,5 C 7,2 C 92 % 1019,4 hPa 0,0 l/m 0 min 0 min 23 W/m 37,7 km/h (5 Bft)
22.12.2014 11:06 8,5 C 7,2 C 92 % 1019,2 hPa 0,0 l/m 0 min 0 min 24 W/m 41,8 km/h (6 Bft)
22.12.2014 11:08 8,5 C 7,2 C 92 % 1019,3 hPa 0,0 l/m 0 min 0 min 26 W/m 46,0 km/h (6 Bft)
22.12.2014 11:10 8,5 C 7,2 C 92 % 1019,3 hPa 0,0 l/m 0 min 0 min 27 W/m 41,8 km/h (6 Bft)
22.12.2014 11:12 8,5 C 7,2 C 92 % 1019,4 hPa 0,0 l/m 0 min 0 min 30 W/m 60,7 km/h (7 Bft)
22.12.2014 11:14 8,5 C 7,2 C 92 % 1019,0 hPa 0,0 l/m 0 min 0 min 29 W/m 54,4 km/h (7 Bft)
22.12.2014 11:16 8,5 C 7,2 C 93 % 1018,7 hPa 0,0 l/m 0 min 0 min 37 W/m 41,8 km/h (6 Bft)
22.12.2014 11:18 8,6 C 7,2 C 93 % 1018,6 hPa 0,0 l/m 0 min 0 min 49 W/m 54,4 km/h (7 Bft)
22.12.2014 11:20 8,6 C 7,2 C 93 % 1018,5 hPa 0,0 l/m 0 min 0 min 43 W/m 50,2 km/h (7 Bft)
22.12.2014 11:22 8,6 C 7,2 C 93 % 1018,7 hPa 0,0 l/m 0 min 0 min 35 W/m 46,0 km/h (6 Bft)
22.12.2014 11:24 8,6 C 7,2 C 93 % 1018,9 hPa 0,0 l/m 0 min 0 min 28 W/m 39,7 km/h (6 Bft)
22.12.2014 11:26 8,5 C 7,2 C 93 % 1018,9 hPa 0,0 l/m 0 min 0 min 26 W/m 46,0 km/h (6 Bft)
22.12.2014 11:28 8,6 C 7,2 C 93 % 1018,8 hPa 0,0 l/m 0 min 0 min 28 W/m 35,6 km/h (5 Bft)
22.12.2014 11:30 8,6 C 7,2 C 93 % 1018,9 hPa 0,0 l/m 0 min 0 min 27 W/m 31,4 km/h (5 Bft)
22.12.2014 11:32 8,6 C 7,2 C 93 % 1018,7 hPa 0,0 l/m 0 min 0 min 26 W/m 43,9 km/h (6 Bft)
22.12.2014 11:34 8,6 C 7,2 C 93 % 1018,9 hPa 0,0 l/m 0 min 0 min 31 W/m 50,2 km/h (7 Bft)
22.12.2014 11:36 8,6 C 7,2 C 93 % 1019,0 hPa 0,0 l/m 0 min 0 min 36 W/m 48,1 km/h (6 Bft)
22.12.2014 11:38 8,6 C 7,2 C 93 % 1018,8 hPa 0,0 l/m 0 min 0 min 32 W/m 46,0 km/h (6 Bft)
22.12.2014 11:40 8,6 C 7,2 C 93 % 1018,8 hPa 0,0 l/m 0 min 0 min 32 W/m 43,9 km/h (6 Bft)
22.12.2014 11:42 8,6 C 7,8 C 93 % 1018,9 hPa 0,0 l/m 0 min 0 min 39 W/m 50,2 km/h (7 Bft)
22.12.2014 11:44 8,6 C 7,8 C 93 % 1018,7 hPa 0,0 l/m 0 min 0 min 38 W/m 48,1 km/h (6 Bft)
22.12.2014 11:46 8,7 C 7,8 C 93 % 1018,9 hPa 0,0 l/m 0 min 0 min 33 W/m 39,7 km/h (6 Bft)
22.12.2014 11:48 8,7 C 7,8 C 93 % 1018,8 hPa 0,0 l/m 0 min 0 min 34 W/m 35,6 km/h (5 Bft)
22.12.2014 11:50 8,7 C 7,8 C 93 % 1018,9 hPa 0,0 l/m 0 min 0 min 38 W/m 46,0 km/h (6 Bft)
22.12.2014 11:52 8,7 C 7,8 C 93 % 1019,0 hPa 0,0 l/m 0 min 0 min 32 W/m 41,8 km/h (6 Bft)
22.12.2014 11:54 8,7 C 7,8 C 93 % 1019,0 hPa 0,0 l/m 0 min 0 min 28 W/m 35,6 km/h (5 Bft)
22.12.2014 11:56 8,7 C 7,8 C 93 % 1019,0 hPa 0,0 l/m 0 min 0 min 32 W/m 41,8 km/h (6 Bft)
22.12.2014 11:58 8,7 C 7,8 C 93 % 1018,8 hPa 0,0 l/m 0 min 0 min 43 W/m 35,6 km/h (5 Bft)
22.12.2014 12:00 8,7 C 7,8 C 93 % 1018,9 hPa 0,0 l/m 0 min 0 min 34 W/m 48,1 km/h (6 Bft)
22.12.2014 12:02 8,7 C 7,8 C 93 % 1018,8 hPa 0,0 l/m 0 min 0 min 42 W/m 54,4 km/h (7 Bft)
22.12.2014 12:05 8,7 C 7,8 C 93 % 1018,5 hPa 0,0 l/m 0 min 0 min 42 W/m 54,4 km/h (7 Bft)
22.12.2014 12:06 8,8 C 7,8 C 94 % 1018,5 hPa 0,0 l/m 0 min 0 min 39 W/m 54,4 km/h (7 Bft)
22.12.2014 12:08 8,8 C 7,8 C 94 % 1018,4 hPa 0,0 l/m 0 min 0 min 48 W/m 39,7 km/h (6 Bft)
22.12.2014 12:10 8,8 C 7,8 C 93 % 1018,3 hPa 0,0 l/m 0 min 0 min 67 W/m 41,8 km/h (6 Bft)
22.12.2014 12:12 8,8 C 7,8 C 94 % 1018,5 hPa 0,0 l/m 0 min 0 min 65 W/m 37,7 km/h (5 Bft)
22.12.2014 12:14 8,8 C 7,8 C 93 % 1018,6 hPa 0,0 l/m 0 min 0 min 52 W/m 46,0 km/h (6 Bft)
22.12.2014 12:16 8,9 C 7,8 C 93 % 1018,6 hPa 0,0 l/m 0 min 0 min 38 W/m 35,6 km/h (5 Bft)
22.12.2014 12:18 8,9 C 7,8 C 93 % 1018,5 hPa 0,0 l/m 0 min 0 min 57 W/m 46,0 km/h (6 Bft)
22.12.2014 12:20 8,9 C 7,8 C 93 % 1017,9 hPa 0,0 l/m 0 min 0 min 88 W/m 46,0 km/h (6 Bft)
22.12.2014 12:22 8,9 C 8,3 C 93 % 1018,3 hPa 0,0 l/m 0 min 0 min 81 W/m 54,4 km/h (7 Bft)
22.12.2014 12:24 9,0 C 7,8 C 93 % 1018,3 hPa 0,0 l/m 0 min 0 min 32 W/m 50,2 km/h (7 Bft)
22.12.2014 12:26 9,0 C 7,8 C 93 % 1018,4 hPa 0,0 l/m 0 min 0 min 24 W/m 39,7 km/h (6 Bft)
22.12.2014 12:28 9,0 C 7,8 C 93 % 1018,3 hPa 0,0 l/m 0 min 0 min 28 W/m 39,7 km/h (6 Bft)
22.12.2014 12:30 9,1 C 7,8 C 93 % 1018,3 hPa 0,0 l/m 0 min 0 min 26 W/m 48,1 km/h (6 Bft)
22.12.2014 12:32 9,1 C 7,8 C 93 % 1018,3 hPa 0,0 l/m 0 min 0 min 29 W/m 43,9 km/h (6 Bft)
22.12.2014 12:34 9,1 C 7,8 C 93 % 1018,3 hPa 0,0 l/m 0 min 0 min 29 W/m 43,9 km/h (6 Bft)
22.12.2014 12:36 9,1 C 7,8 C 93 % 1018,0 hPa 0,0 l/m 0 min 0 min 32 W/m 39,7 km/h (6 Bft)
22.12.2014 12:38 9,1 C 7,8 C 93 % 1018,0 hPa 0,0 l/m 0 min 0 min 30 W/m 39,7 km/h (6 Bft)
22.12.2014 12:40 9,1 C 7,8 C 93 % 1017,9 hPa 0,0 l/m 0 min 0 min 35 W/m 35,6 km/h (5 Bft)
22.12.2014 12:42 9,1 C 7,8 C 93 % 1017,9 hPa 0,0 l/m 0 min 0 min 35 W/m 58,6 km/h (7 Bft)
22.12.2014 12:44 9,1 C 7,8 C 93 % 1017,9 hPa 0,0 l/m 0 min 0 min 38 W/m 54,4 km/h (7 Bft)
22.12.2014 12:46 9,2 C 8,3 C 93 % 1018,0 hPa 0,0 l/m 0 min 0 min 40 W/m 62,8 km/h (8 Bft)
22.12.2014 12:48 9,2 C 8,3 C 93 % 1017,8 hPa 0,0 l/m 0 min 0 min 60 W/m 41,8 km/h (6 Bft)
22.12.2014 12:50 9,2 C 8,3 C 93 % 1018,0 hPa 0,0 l/m 0 min 0 min 50 W/m 41,8 km/h (6 Bft)
22.12.2014 12:52 9,2 C 8,3 C 93 % 1018,2 hPa 0,0 l/m 0 min 0 min 31 W/m 50,2 km/h (7 Bft)
22.12.2014 12:54 9,2 C 8,3 C 93 % 1018,0 hPa 0,0 l/m 0 min 0 min 35 W/m 35,6 km/h (5 Bft)
22.12.2014 12:56 9,3 C 8,3 C 93 % 1017,7 hPa 0,0 l/m 0 min 0 min 55 W/m 52,3 km/h (7 Bft)
22.12.2014 12:58 9,3 C 8,3 C 93 % 1017,9 hPa 0,0 l/m 0 min 0 min 42 W/m 48,1 km/h (6 Bft)
22.12.2014 13:00 9,3 C 8,3 C 93 % 1017,9 hPa 0,0 l/m 0 min 0 min 37 W/m 48,1 km/h (6 Bft)
22.12.2014 13:02 9,3 C 8,3 C 92 % 1018,1 hPa 0,0 l/m 0 min 0 min 38 W/m 46,0 km/h (6 Bft)
22.12.2014 13:04 9,4 C 8,3 C 92 % 1017,8 hPa 0,0 l/m 0 min 0 min 38 W/m 50,2 km/h (7 Bft)
22.12.2014 13:06 9,4 C 8,3 C 92 % 1018,0 hPa 0,0 l/m 0 min 0 min 45 W/m 52,3 km/h (7 Bft)
22.12.2014 13:08 9,4 C 8,3 C 92 % 1018,1 hPa 0,0 l/m 0 min 0 min 38 W/m 43,9 km/h (6 Bft)
22.12.2014 13:10 9,4 C 8,3 C 92 % 1017,8 hPa 0,0 l/m 0 min 0 min 39 W/m 41,8 km/h (6 Bft)
22.12.2014 13:12 9,4 C 8,3 C 92 % 1018,0 hPa 0,0 l/m 0 min 0 min 34 W/m 31,4 km/h (5 Bft)
22.12.2014 13:14 9,5 C 8,3 C 92 % 1018,0 hPa 0,0 l/m 0 min 0 min 27 W/m 29,3 km/h (5 Bft)
22.12.2014 13:16 9,5 C 8,3 C 92 % 1017,9 hPa 0,0 l/m 0 min 0 min 29 W/m 43,9 km/h (6 Bft)
22.12.2014 13:18 9,5 C 8,3 C 92 % 1017,9 hPa 0,0 l/m 0 min 0 min 29 W/m 37,7 km/h (5 Bft)
22.12.2014 13:20 9,5 C 8,3 C 92 % 1018,0 hPa 0,0 l/m 0 min 0 min 24 W/m 58,6 km/h (7 Bft)
22.12.2014 13:22 9,5 C 8,3 C 92 % 1018,0 hPa 0,0 l/m 0 min 0 min 19 W/m 39,7 km/h (6 Bft)
22.12.2014 13:24 9,6 C 8,3 C 92 % 1018,0 hPa 0,0 l/m 0 min 0 min 21 W/m 60,7 km/h (7 Bft)
22.12.2014 13:26 9,6 C 8,3 C 92 % 1017,7 hPa 0,0 l/m 0 min 0 min 23 W/m 33,5 km/h (5 Bft)
22.12.2014 13:28 9,6 C 8,3 C 92 % 1017,7 hPa 0,0 l/m 0 min 0 min 21 W/m 58,6 km/h (7 Bft)
22.12.2014 13:30 9,6 C 8,3 C 92 % 1017,7 hPa 0,0 l/m 0 min 0 min 19 W/m 52,3 km/h (7 Bft)
22.12.2014 13:32 9,6 C 8,3 C 92 % 1017,8 hPa 0,0 l/m 0 min 0 min 20 W/m 43,9 km/h (6 Bft)
22.12.2014 13:34 9,6 C 8,3 C 92 % 1017,6 hPa 0,0 l/m 0 min 0 min 22 W/m 60,7 km/h (7 Bft)
22.12.2014 13:36 9,6 C 8,3 C 92 % 1017,4 hPa 0,0 l/m 0 min 0 min 22 W/m 54,4 km/h (7 Bft)
22.12.2014 13:38 9,7 C 8,3 C 92 % 1017,2 hPa 0,0 l/m 0 min 0 min 21 W/m 50,2 km/h (7 Bft)
22.12.2014 13:40 9,7 C 8,3 C 92 % 1017,5 hPa 0,0 l/m 0 min 0 min 21 W/m 46,0 km/h (6 Bft)
22.12.2014 13:42 9,7 C 8,3 C 92 % 1017,5 hPa 0,0 l/m 0 min 0 min 25 W/m 46,0 km/h (6 Bft)
22.12.2014 13:44 9,7 C 8,3 C 92 % 1017,8 hPa 0,0 l/m 0 min 0 min 22 W/m 39,7 km/h (6 Bft)
22.12.2014 13:46 9,7 C 8,3 C 92 % 1017,6 hPa 0,0 l/m 0 min 0 min 20 W/m 46,0 km/h (6 Bft)
22.12.2014 13:48 9,7 C 8,3 C 92 % 1017,7 hPa 0,0 l/m 0 min 0 min 17 W/m 37,7 km/h (5 Bft)
22.12.2014 13:50 9,7 C 8,3 C 92 % 1017,7 hPa 0,0 l/m 0 min 0 min 15 W/m 35,6 km/h (5 Bft)
22.12.2014 13:52 9,7 C 8,3 C 92 % 1017,7 hPa 0,0 l/m 0 min 0 min 16 W/m 48,1 km/h (6 Bft)
22.12.2014 13:54 9,7 C 8,3 C 92 % 1017,7 hPa 0,0 l/m 0 min 0 min 14 W/m 41,8 km/h (6 Bft)
22.12.2014 13:56 9,7 C 8,3 C 92 % 1017,7 hPa 0,0 l/m 0 min 0 min 12 W/m 48,1 km/h (6 Bft)
22.12.2014 13:58 9,7 C 8,3 C 92 % 1017,5 hPa 0,0 l/m 0 min 0 min 12 W/m 43,9 km/h (6 Bft)
22.12.2014 14:00 9,8 C 8,3 C 92 % 1017,6 hPa 0,0 l/m 0 min 0 min 12 W/m 48,1 km/h (6 Bft)
22.12.2014 14:02 9,7 C 8,3 C 92 % 1017,6 hPa 0,0 l/m 0 min 0 min 12 W/m 33,5 km/h (5 Bft)
22.12.2014 14:04 9,8 C 8,3 C 92 % 1017,7 hPa 0,0 l/m 0 min 0 min 12 W/m 41,8 km/h (6 Bft)
22.12.2014 14:06 9,8 C 8,3 C 92 % 1017,8 hPa 0,0 l/m 0 min 0 min 11 W/m 43,9 km/h (6 Bft)
22.12.2014 14:08 9,8 C 8,3 C 92 % 1017,7 hPa 0,0 l/m 0 min 0 min 11 W/m 41,8 km/h (6 Bft)
22.12.2014 14:10 9,8 C 8,3 C 92 % 1017,6 hPa 0,0 l/m 0 min 0 min 11 W/m 43,9 km/h (6 Bft)
22.12.2014 14:12 9,8 C 8,3 C 92 % 1017,7 hPa 0,0 l/m 0 min 0 min 11 W/m 27,2 km/h (4 Bft)
22.12.2014 14:14 9,8 C 8,3 C 92 % 1017,8 hPa 0,0 l/m 0 min 0 min 11 W/m 37,7 km/h (5 Bft)
22.12.2014 14:16 9,8 C 8,3 C 92 % 1017,8 hPa 0,0 l/m 0 min 0 min 11 W/m 33,5 km/h (5 Bft)
22.12.2014 14:18 9,8 C 8,3 C 92 % 1017,6 hPa 0,0 l/m 0 min 0 min 12 W/m 29,3 km/h (5 Bft)
22.12.2014 14:20 9,8 C 8,3 C 92 % 1017,6 hPa 0,0 l/m 0 min 0 min 12 W/m 39,7 km/h (6 Bft)
22.12.2014 14:22 9,8 C 8,3 C 92 % 1017,6 hPa 0,0 l/m 0 min 0 min 11 W/m 46,0 km/h (6 Bft)
22.12.2014 14:24 9,8 C 8,3 C 92 % 1017,6 hPa 0,0 l/m 0 min 0 min 11 W/m 31,4 km/h (5 Bft)
22.12.2014 14:26 9,8 C 8,3 C 92 % 1017,6 hPa 0,0 l/m 0 min 0 min 12 W/m 37,7 km/h (5 Bft)
22.12.2014 14:28 9,8 C 8,3 C 92 % 1017,5 hPa 0,0 l/m 0 min 0 min 12 W/m 31,4 km/h (5 Bft)
22.12.2014 14:30 9,8 C 8,3 C 92 % 1017,5 hPa 0,0 l/m 0 min 0 min 11 W/m 31,4 km/h (5 Bft)
22.12.2014 14:32 9,8 C 8,3 C 92 % 1017,6 hPa 0,0 l/m 0 min 2 min 11 W/m 35,6 km/h (5 Bft)
22.12.2014 14:34 9,8 C 8,3 C 92 % 1017,6 hPa 0,0 l/m 0 min 0 min 11 W/m 39,7 km/h (6 Bft)
22.12.2014 14:36 9,9 C 8,3 C 93 % 1017,7 hPa 0,0 l/m 0 min 0 min 11 W/m 43,9 km/h (6 Bft)
22.12.2014 14:38 9,9 C 8,3 C 93 % 1017,6 hPa 0,0 l/m 0 min 0 min 11 W/m 31,4 km/h (5 Bft)
22.12.2014 14:40 9,9 C 8,3 C 93 % 1017,7 hPa 0,0 l/m 0 min 0 min 10 W/m 35,6 km/h (5 Bft)
22.12.2014 14:42 9,9 C 8,3 C 93 % 1017,7 hPa 0,0 l/m 0 min 0 min 11 W/m 41,8 km/h (6 Bft)
22.12.2014 14:44 9,9 C 8,3 C 93 % 1017,8 hPa 0,0 l/m 0 min 0 min 9 W/m 37,7 km/h (5 Bft)
22.12.2014 14:46 9,9 C 8,3 C 93 % 1017,7 hPa 0,0 l/m 0 min 0 min 9 W/m 35,6 km/h (5 Bft)
22.12.2014 14:48 10,0 C 8,3 C 93 % 1017,7 hPa 0,0 l/m 0 min 2 min 8 W/m 35,6 km/h (5 Bft)
22.12.2014 14:50 10,0 C 8,3 C 93 % 1017,6 hPa 0,0 l/m 0 min 0 min 9 W/m 35,6 km/h (5 Bft)
22.12.2014 14:52 10,0 C 8,3 C 93 % 1017,7 hPa 0,0 l/m 0 min 2 min 9 W/m 35,6 km/h (5 Bft)
22.12.2014 14:54 10,0 C 8,3 C 93 % 1017,7 hPa 0,0 l/m 0 min 0 min 9 W/m 33,5 km/h (5 Bft)
22.12.2014 14:56 10,1 C 8,3 C 93 % 1017,6 hPa 0,0 l/m 0 min 0 min 11 W/m 37,7 km/h (5 Bft)
22.12.2014 14:58 10,1 C 8,3 C 93 % 1017,7 hPa 0,0 l/m 0 min 0 min 10 W/m 39,7 km/h (6 Bft)
22.12.2014 15:00 10,1 C 8,3 C 93 % 1017,7 hPa 0,0 l/m 0 min 0 min 11 W/m 31,4 km/h (5 Bft)
22.12.2014 15:02 10,1 C 8,3 C 93 % 1017,6 hPa 0,0 l/m 0 min 0 min 10 W/m 29,3 km/h (5 Bft)
22.12.2014 15:04 10,1 C 8,9 C 94 % 1017,7 hPa 0,0 l/m 0 min 0 min 10 W/m 35,6 km/h (5 Bft)
22.12.2014 15:06 10,2 C 8,9 C 94 % 1017,7 hPa 0,0 l/m 0 min 0 min 10 W/m 35,6 km/h (5 Bft)
22.12.2014 15:08 10,2 C 8,9 C 94 % 1017,6 hPa 0,0 l/m 0 min 0 min 11 W/m 41,8 km/h (6 Bft)
22.12.2014 15:10 10,2 C 8,9 C 94 % 1017,6 hPa 0,0 l/m 0 min 0 min 11 W/m 35,6 km/h (5 Bft)
22.12.2014 15:12 10,2 C 8,9 C 94 % 1017,6 hPa 0,0 l/m 0 min 0 min 11 W/m 46,0 km/h (6 Bft)
22.12.2014 15:14 10,2 C 8,9 C 94 % 1017,7 hPa 0,0 l/m 0 min 0 min 10 W/m 35,6 km/h (5 Bft)
22.12.2014 15:16 10,2 C 8,9 C 94 % 1017,7 hPa 0,0 l/m 0 min 0 min 11 W/m 48,1 km/h (6 Bft)
22.12.2014 15:18 10,3 C 8,9 C 94 % 1017,6 hPa 0,0 l/m 0 min 0 min 15 W/m 37,7 km/h (5 Bft)
22.12.2014 15:20 10,3 C 8,9 C 94 % 1017,5 hPa 0,0 l/m 0 min 0 min 13 W/m 41,8 km/h (6 Bft)
22.12.2014 15:22 10,3 C 8,9 C 94 % 1017,3 hPa 0,0 l/m 0 min 0 min 15 W/m 50,2 km/h (7 Bft)
22.12.2014 15:24 10,3 C 8,9 C 94 % 1017,2 hPa 0,0 l/m 0 min 0 min 19 W/m 37,7 km/h (5 Bft)
22.12.2014 15:26 10,3 C 8,9 C 94 % 1017,6 hPa 0,0 l/m 0 min 0 min 18 W/m 39,7 km/h (6 Bft)
22.12.2014 15:28 10,4 C 8,9 C 94 % 1017,4 hPa 0,0 l/m 0 min 0 min 18 W/m 37,7 km/h (5 Bft)
22.12.2014 15:30 10,4 C 8,9 C 94 % 1017,5 hPa 0,0 l/m 0 min 0 min 13 W/m 39,7 km/h (6 Bft)
22.12.2014 15:32 10,4 C 8,9 C 94 % 1017,5 hPa 0,0 l/m 0 min 0 min 16 W/m 39,7 km/h (6 Bft)
22.12.2014 15:34 10,4 C 9,4 C 94 % 1017,4 hPa 0,0 l/m 0 min 0 min 12 W/m 37,7 km/h (5 Bft)
22.12.2014 15:36 10,4 C 9,4 C 94 % 1017,5 hPa 0,0 l/m 0 min 0 min 14 W/m 46,0 km/h (6 Bft)
22.12.2014 15:38 10,4 C 9,4 C 94 % 1017,3 hPa 0,0 l/m 0 min 0 min 17 W/m 31,4 km/h (5 Bft)
22.12.2014 15:40 10,5 C 9,4 C 94 % 1017,3 hPa 0,0 l/m 0 min 0 min 17 W/m 31,4 km/h (5 Bft)
22.12.2014 15:42 10,5 C 9,4 C 93 % 1017,4 hPa 0,0 l/m 0 min 0 min 18 W/m 27,2 km/h (4 Bft)
22.12.2014 15:44 10,5 C 9,4 C 93 % 1017,3 hPa 0,0 l/m 0 min 0 min 16 W/m 39,7 km/h (6 Bft)
22.12.2014 15:46 10,5 C 9,4 C 94 % 1017,6 hPa 0,0 l/m 0 min 0 min 13 W/m 41,8 km/h (6 Bft)
22.12.2014 15:48 10,6 C 9,4 C 94 % 1017,8 hPa 0,0 l/m 0 min 0 min 11 W/m 35,6 km/h (5 Bft)
22.12.2014 15:50 10,6 C 9,4 C 94 % 1017,5 hPa 0,0 l/m 0 min 0 min 11 W/m 35,6 km/h (5 Bft)
22.12.2014 15:52 10,6 C 9,4 C 93 % 1017,5 hPa 0,0 l/m 0 min 0 min 10 W/m 33,5 km/h (5 Bft)
22.12.2014 15:54 10,6 C 9,4 C 93 % 1017,6 hPa 0,0 l/m 0 min 0 min 7 W/m 31,4 km/h (5 Bft)
22.12.2014 15:56 10,6 C 9,4 C 93 % 1017,4 hPa 0,0 l/m 0 min 0 min 7 W/m 39,7 km/h (6 Bft)
22.12.2014 15:58 10,6 C 9,4 C 93 % 1017,4 hPa 0,0 l/m 0 min 0 min 9 W/m 43,9 km/h (6 Bft)
22.12.2014 16:00 10,6 C 9,4 C 93 % 1017,5 hPa 0,0 l/m 0 min 0 min 8 W/m 39,7 km/h (6 Bft)
22.12.2014 16:02 10,6 C 9,4 C 93 % 1017,3 hPa 0,0 l/m 0 min 0 min 10 W/m 37,7 km/h (5 Bft)
22.12.2014 16:04 10,6 C 9,4 C 93 % 1017,4 hPa 0,0 l/m 0 min 0 min 9 W/m 37,7 km/h (5 Bft)
22.12.2014 16:06 10,6 C 9,4 C 93 % 1017,6 hPa 0,0 l/m 0 min 0 min 7 W/m 41,8 km/h (6 Bft)
22.12.2014 16:08 10,6 C 9,4 C 93 % 1017,5 hPa 0,0 l/m 0 min 0 min 2 W/m 29,3 km/h (5 Bft)
22.12.2014 16:10 10,6 C 9,4 C 93 % 1017,4 hPa 0,0 l/m 0 min 0 min 0 W/m 43,9 km/h (6 Bft)
22.12.2014 16:12 10,7 C 9,4 C 93 % 1017,5 hPa 0,0 l/m 0 min 0 min 0 W/m 41,8 km/h (6 Bft)
22.12.2014 16:14 10,7 C 9,4 C 93 % 1017,6 hPa 0,0 l/m 0 min 0 min 0 W/m 41,8 km/h (6 Bft)
22.12.2014 16:16 10,7 C 9,4 C 93 % 1017,6 hPa 0,0 l/m 0 min 0 min 0 W/m 41,8 km/h (6 Bft)
22.12.2014 16:18 10,7 C 9,4 C 93 % 1017,5 hPa 0,0 l/m 0 min 0 min 0 W/m 39,7 km/h (6 Bft)
22.12.2014 16:20 10,7 C 9,4 C 93 % 1017,5 hPa 0,0 l/m 0 min 0 min 0 W/m 41,8 km/h (6 Bft)
22.12.2014 16:22 10,7 C 9,4 C 93 % 1017,4 hPa 0,0 l/m 0 min 0 min 0 W/m 37,7 km/h (5 Bft)
22.12.2014 16:24 10,7 C 9,4 C 93 % 1017,4 hPa 0,0 l/m 0 min 0 min 0 W/m 48,1 km/h (6 Bft)
22.12.2014 16:26 10,7 C 9,4 C 93 % 1017,3 hPa 0,0 l/m 0 min 0 min 0 W/m 33,5 km/h (5 Bft)
22.12.2014 16:28 10,7 C 9,4 C 93 % 1017,4 hPa 0,0 l/m 0 min 0 min 0 W/m 41,8 km/h (6 Bft)
22.12.2014 16:30 10,7 C 9,4 C 93 % 1017,4 hPa 0,0 l/m 0 min 0 min 0 W/m 35,6 km/h (5 Bft)
22.12.2014 16:32 10,8 C 9,4 C 93 % 1017,5 hPa 0,0 l/m 0 min 0 min 0 W/m 41,8 km/h (6 Bft)
22.12.2014 16:34 10,8 C 9,4 C 93 % 1017,6 hPa 0,0 l/m 0 min 0 min 0 W/m 31,4 km/h (5 Bft)
22.12.2014 16:36 10,8 C 9,4 C 93 % 1017,4 hPa 0,0 l/m 0 min 0 min 0 W/m 39,7 km/h (6 Bft)
22.12.2014 16:38 10,8 C 9,4 C 93 % 1017,5 hPa 0,0 l/m 0 min 0 min 0 W/m 39,7 km/h (6 Bft)
22.12.2014 16:40 10,8 C 9,4 C 93 % 1017,5 hPa 0,0 l/m 0 min 0 min 0 W/m 33,5 km/h (5 Bft)
22.12.2014 16:42 10,8 C 9,4 C 92 % 1017,4 hPa 0,0 l/m 0 min 0 min 0 W/m 37,7 km/h (5 Bft)
22.12.2014 16:44 10,8 C 9,4 C 92 % 1017,4 hPa 0,0 l/m 0 min 0 min 0 W/m 46,0 km/h (6 Bft)
22.12.2014 16:46 10,8 C 9,4 C 92 % 1017,5 hPa 0,0 l/m 0 min 0 min 0 W/m 46,0 km/h (6 Bft)
22.12.2014 16:48 10,8 C 9,4 C 92 % 1017,5 hPa 0,0 l/m 0 min 0 min 0 W/m 35,6 km/h (5 Bft)
22.12.2014 16:50 10,9 C 9,4 C 92 % 1017,5 hPa 0,0 l/m 0 min 0 min 0 W/m 37,7 km/h (5 Bft)
22.12.2014 16:52 10,9 C 9,4 C 92 % 1017,7 hPa 0,0 l/m 0 min 0 min 0 W/m 37,7 km/h (5 Bft)
22.12.2014 16:54 10,9 C 9,4 C 92 % 1017,6 hPa 0,0 l/m 0 min 0 min 0 W/m 41,8 km/h (6 Bft)
22.12.2014 16:56 10,9 C 9,4 C 92 % 1017,5 hPa 0,0 l/m 0 min 0 min 0 W/m 35,6 km/h (5 Bft)
22.12.2014 16:58 10,9 C 9,4 C 92 % 1017,5 hPa 0,0 l/m 0 min 0 min 0 W/m 41,8 km/h (6 Bft)
22.12.2014 17:00 10,9 C 9,4 C 92 % 1017,5 hPa 0,0 l/m 0 min 0 min 0 W/m 31,4 km/h (5 Bft)
22.12.2014 17:02 10,9 C 9,4 C 92 % 1017,6 hPa 0,0 l/m 0 min 0 min 0 W/m 39,7 km/h (6 Bft)
22.12.2014 17:04 10,9 C 9,4 C 92 % 1017,5 hPa 0,0 l/m 0 min 0 min 0 W/m 33,5 km/h (5 Bft)
22.12.2014 17:06 10,9 C 9,4 C 92 % 1017,6 hPa 0,0 l/m 0 min 0 min 0 W/m 37,7 km/h (5 Bft)
22.12.2014 17:08 10,9 C 9,4 C 92 % 1017,6 hPa 0,0 l/m 0 min 0 min 0 W/m 41,8 km/h (6 Bft)
22.12.2014 17:10 11,0 C 9,4 C 92 % 1017,6 hPa 0,0 l/m 0 min 0 min 0 W/m 39,7 km/h (6 Bft)
22.12.2014 17:12 11,0 C 9,4 C 92 % 1017,6 hPa 0,0 l/m 0 min 0 min 0 W/m 46,0 km/h (6 Bft)
22.12.2014 17:14 11,0 C 9,4 C 92 % 1017,7 hPa 0,0 l/m 0 min 0 min 0 W/m 35,6 km/h (5 Bft)
22.12.2014 17:16 11,1 C 10,0 C 92 % 1017,8 hPa 0,0 l/m 0 min 0 min 0 W/m 46,0 km/h (6 Bft)
22.12.2014 17:18 11,1 C 10,0 C 92 % 1017,9 hPa 0,0 l/m 0 min 0 min 0 W/m 39,7 km/h (6 Bft)
22.12.2014 17:20 11,1 C 10,0 C 92 % 1017,7 hPa 0,0 l/m 0 min 0 min 0 W/m 41,8 km/h (6 Bft)
22.12.2014 17:22 11,1 C 10,0 C 92 % 1017,7 hPa 0,0 l/m 0 min 0 min 0 W/m 43,9 km/h (6 Bft)
22.12.2014 17:24 11,1 C 10,0 C 92 % 1017,7 hPa 0,0 l/m 0 min 0 min 0 W/m 50,2 km/h (7 Bft)
22.12.2014 17:26 11,1 C 10,0 C 92 % 1017,8 hPa 0,0 l/m 0 min 0 min 0 W/m 33,5 km/h (5 Bft)
22.12.2014 17:28 11,2 C 10,0 C 91 % 1017,8 hPa 0,0 l/m 0 min 0 min 0 W/m 46,0 km/h (6 Bft)
22.12.2014 17:30 11,2 C 10,0 C 91 % 1017,8 hPa 0,0 l/m 0 min 0 min 0 W/m 43,9 km/h (6 Bft)
22.12.2014 17:32 11,2 C 10,0 C 91 % 1017,7 hPa 0,0 l/m 0 min 0 min 0 W/m 35,6 km/h (5 Bft)
22.12.2014 17:34 11,2 C 10,0 C 91 % 1017,8 hPa 0,0 l/m 0 min 0 min 0 W/m 37,7 km/h (5 Bft)
22.12.2014 17:36 11,2 C 10,0 C 91 % 1017,7 hPa 0,0 l/m 0 min 0 min 0 W/m 37,7 km/h (5 Bft)
22.12.2014 17:38 11,2 C 10,0 C 91 % 1017,7 hPa 0,0 l/m 0 min 0 min 0 W/m 29,3 km/h (5 Bft)
22.12.2014 17:40 11,2 C 10,0 C 91 % 1017,7 hPa 0,0 l/m 0 min 0 min 0 W/m 35,6 km/h (5 Bft)
22.12.2014 17:42 11,2 C 10,0 C 91 % 1017,7 hPa 0,0 l/m 0 min 0 min 0 W/m 33,5 km/h (5 Bft)
22.12.2014 17:44 11,2 C 10,0 C 91 % 1017,7 hPa 0,0 l/m 0 min 0 min 0 W/m 35,6 km/h (5 Bft)
22.12.2014 17:46 11,2 C 10,0 C 91 % 1017,7 hPa 0,0 l/m 0 min 0 min 0 W/m 43,9 km/h (6 Bft)
22.12.2014 17:48 11,3 C 10,0 C 91 % 1017,7 hPa 0,0 l/m 0 min 0 min 0 W/m 50,2 km/h (7 Bft)
22.12.2014 17:50 11,3 C 10,0 C 91 % 1017,7 hPa 0,0 l/m 0 min 0 min 0 W/m 43,9 km/h (6 Bft)
22.12.2014 17:52 11,3 C 10,0 C 91 % 1017,8 hPa 0,0 l/m 0 min 0 min 0 W/m 43,9 km/h (6 Bft)
22.12.2014 17:54 11,3 C 10,0 C 91 % 1017,7 hPa 0,0 l/m 0 min 0 min 0 W/m 37,7 km/h (5 Bft)
22.12.2014 17:56 11,3 C 10,0 C 91 % 1017,7 hPa 0,0 l/m 0 min 0 min 0 W/m 41,8 km/h (6 Bft)
22.12.2014 17:58 11,4 C 10,0 C 91 % 1017,7 hPa 0,0 l/m 0 min 0 min 0 W/m 33,5 km/h (5 Bft)
22.12.2014 18:00 11,4 C 10,0 C 91 % 1017,7 hPa 0,0 l/m 0 min 0 min 0 W/m 41,8 km/h (6 Bft)
22.12.2014 18:02 11,4 C 10,0 C 91 % 1017,8 hPa 0,0 l/m 0 min 0 min 0 W/m 37,7 km/h (5 Bft)
22.12.2014 18:05 11,4 C 10,0 C 91 % 1017,8 hPa 0,0 l/m 0 min 0 min 0 W/m 43,9 km/h (6 Bft)
22.12.2014 18:08 11,4 C 10,0 C 91 % 1017,8 hPa 0,0 l/m 0 min 0 min 0 W/m 43,9 km/h (6 Bft)
22.12.2014 18:10 11,4 C 10,0 C 91 % 1017,8 hPa 0,0 l/m 0 min 0 min 0 W/m 43,9 km/h (6 Bft)
22.12.2014 18:12 11,4 C 10,0 C 91 % 1017,9 hPa 0,0 l/m 0 min 0 min 0 W/m 39,7 km/h (6 Bft)
22.12.2014 18:14 11,4 C 10,0 C 91 % 1017,8 hPa 0,0 l/m 0 min 0 min 0 W/m 39,7 km/h (6 Bft)
22.12.2014 18:16 11,4 C 10,0 C 91 % 1017,8 hPa 0,0 l/m 0 min 0 min 0 W/m 48,1 km/h (6 Bft)
22.12.2014 18:18 11,5 C 10,0 C 90 % 1017,8 hPa 0,0 l/m 0 min 0 min 0 W/m 39,7 km/h (6 Bft)
22.12.2014 18:20 11,5 C 10,0 C 90 % 1017,8 hPa 0,0 l/m 0 min 0 min 0 W/m 39,7 km/h (6 Bft)
22.12.2014 18:22 11,5 C 10,0 C 91 % 1017,7 hPa 0,0 l/m 0 min 0 min 0 W/m 33,5 km/h (5 Bft)
22.12.2014 18:24 11,5 C 10,0 C 91 % 1017,8 hPa 0,0 l/m 0 min 0 min 0 W/m 43,9 km/h (6 Bft)
22.12.2014 18:26 11,5 C 10,0 C 90 % 1017,8 hPa 0,0 l/m 0 min 0 min 0 W/m 43,9 km/h (6 Bft)
22.12.2014 18:28 11,6 C 10,0 C 90 % 1017,8 hPa 0,0 l/m 0 min 0 min 0 W/m 37,7 km/h (5 Bft)
22.12.2014 18:30 11,6 C 10,0 C 90 % 1017,8 hPa 0,0 l/m 0 min 0 min 0 W/m 41,8 km/h (6 Bft)
22.12.2014 18:32 11,6 C 10,0 C 90 % 1017,7 hPa 0,0 l/m 0 min 0 min 0 W/m 37,7 km/h (5 Bft)
22.12.2014 18:34 11,6 C 10,0 C 90 % 1017,7 hPa 0,0 l/m 0 min 0 min 0 W/m 46,0 km/h (6 Bft)
22.12.2014 18:36 11,6 C 10,0 C 90 % 1017,8 hPa 0,0 l/m 0 min 0 min 0 W/m 41,8 km/h (6 Bft)
22.12.2014 18:38 11,6 C 10,0 C 90 % 1017,8 hPa 0,0 l/m 0 min 0 min 0 W/m 43,9 km/h (6 Bft)
22.12.2014 18:40 11,6 C 10,0 C 90 % 1017,8 hPa 0,0 l/m 0 min 0 min 0 W/m 41,8 km/h (6 Bft)
22.12.2014 18:42 11,6 C 10,0 C 90 % 1017,7 hPa 0,0 l/m 0 min 0 min 0 W/m 37,7 km/h (5 Bft)
22.12.2014 18:44 11,6 C 10,0 C 90 % 1017,8 hPa 0,0 l/m 0 min 0 min 0 W/m 41,8 km/h (6 Bft)
22.12.2014 18:46 11,6 C 10,0 C 90 % 1017,8 hPa 0,0 l/m 0 min 0 min 0 W/m 46,0 km/h (6 Bft)
22.12.2014 18:48 11,7 C 10,0 C 90 % 1017,8 hPa 0,0 l/m 0 min 0 min 0 W/m 48,1 km/h (6 Bft)
22.12.2014 18:50 11,7 C 10,0 C 90 % 1017,8 hPa 0,0 l/m 0 min 0 min 0 W/m 43,9 km/h (6 Bft)
22.12.2014 18:52 11,7 C 10,0 C 90 % 1017,8 hPa 0,0 l/m 0 min 0 min 0 W/m 35,6 km/h (5 Bft)
22.12.2014 18:54 11,7 C 10,0 C 90 % 1017,7 hPa 0,0 l/m 0 min 0 min 0 W/m 39,7 km/h (6 Bft)
22.12.2014 18:56 11,7 C 10,6 C 90 % 1017,7 hPa 0,0 l/m 0 min 0 min 0 W/m 43,9 km/h (6 Bft)
22.12.2014 18:58 11,7 C 10,0 C 90 % 1017,7 hPa 0,0 l/m 0 min 0 min 0 W/m 37,7 km/h (5 Bft)
22.12.2014 19:00 11,7 C 10,0 C 90 % 1017,8 hPa 0,0 l/m 0 min 0 min 0 W/m 41,8 km/h (6 Bft)
22.12.2014 19:02 11,7 C 10,0 C 90 % 1017,9 hPa 0,0 l/m 0 min 0 min 0 W/m 33,5 km/h (5 Bft)
22.12.2014 19:04 11,7 C 10,0 C 90 % 1017,8 hPa 0,0 l/m 0 min 0 min 0 W/m 58,6 km/h (7 Bft)
22.12.2014 19:06 11,7 C 10,0 C 90 % 1017,8 hPa 0,0 l/m 0 min 0 min 0 W/m 37,7 km/h (5 Bft)
22.12.2014 19:08 11,7 C 10,0 C 90 % 1017,7 hPa 0,0 l/m 0 min 0 min 0 W/m 50,2 km/h (7 Bft)
22.12.2014 19:10 11,7 C 10,0 C 90 % 1017,8 hPa 0,0 l/m 0 min 0 min 0 W/m 50,2 km/h (7 Bft)
22.12.2014 19:12 11,7 C 10,0 C 90 % 1017,7 hPa 0,0 l/m 0 min 0 min 0 W/m 43,9 km/h (6 Bft)
22.12.2014 19:14 11,7 C 10,6 C 90 % 1017,8 hPa 0,0 l/m 0 min 0 min 0 W/m 50,2 km/h (7 Bft)
22.12.2014 19:16 11,7 C 10,0 C 90 % 1017,8 hPa 0,0 l/m 0 min 0 min 0 W/m 39,7 km/h (6 Bft)
22.12.2014 19:18 11,7 C 10,6 C 90 % 1017,8 hPa 0,0 l/m 0 min 0 min 0 W/m 43,9 km/h (6 Bft)
22.12.2014 19:20 11,7 C 10,0 C 90 % 1017,8 hPa 0,0 l/m 0 min 0 min 0 W/m 39,7 km/h (6 Bft)
22.12.2014 19:22 11,7 C 10,0 C 90 % 1017,7 hPa 0,0 l/m 0 min 0 min 0 W/m 37,7 km/h (5 Bft)
22.12.2014 19:24 11,7 C 10,0 C 90 % 1017,8 hPa 0,0 l/m 0 min 0 min 0 W/m 46,0 km/h (6 Bft)
22.12.2014 19:26 11,7 C 10,0 C 90 % 1017,8 hPa 0,0 l/m 0 min 0 min 0 W/m 46,0 km/h (6 Bft)
22.12.2014 19:28 11,7 C 10,0 C 90 % 1017,8 hPa 0,0 l/m 0 min 0 min 0 W/m 37,7 km/h (5 Bft)
22.12.2014 19:30 11,7 C 10,0 C 90 % 1017,8 hPa 0,0 l/m 0 min 0 min 0 W/m 46,0 km/h (6 Bft)
22.12.2014 19:32 11,7 C 10,0 C 90 % 1017,8 hPa 0,0 l/m 0 min 0 min 0 W/m 35,6 km/h (5 Bft)
22.12.2014 19:34 11,7 C 10,0 C 90 % 1017,8 hPa 0,0 l/m 0 min 0 min 0 W/m 50,2 km/h (7 Bft)
22.12.2014 19:36 11,7 C 10,0 C 90 % 1017,6 hPa 0,0 l/m 0 min 0 min 0 W/m 43,9 km/h (6 Bft)
22.12.2014 19:38 11,7 C 10,0 C 90 % 1017,6 hPa 0,0 l/m 0 min 0 min 0 W/m 37,7 km/h (5 Bft)
22.12.2014 19:40 11,7 C 10,0 C 90 % 1017,6 hPa 0,0 l/m 0 min 0 min 0 W/m 37,7 km/h (5 Bft)
22.12.2014 19:42 11,7 C 10,0 C 91 % 1017,6 hPa 0,0 l/m 0 min 0 min 0 W/m 31,4 km/h (5 Bft)
22.12.2014 19:44 11,6 C 10,0 C 91 % 1017,5 hPa 0,0 l/m 0 min 0 min 0 W/m 43,9 km/h (6 Bft)
22.12.2014 19:46 11,6 C 10,0 C 91 % 1017,4 hPa 0,0 l/m 0 min 0 min 0 W/m 46,0 km/h (6 Bft)
22.12.2014 19:48 11,6 C 10,0 C 91 % 1017,5 hPa 0,0 l/m 0 min 0 min 0 W/m 48,1 km/h (6 Bft)
22.12.2014 19:50 11,6 C 10,0 C 91 % 1017,4 hPa 0,0 l/m 0 min 0 min 0 W/m 56,5 km/h (7 Bft)
22.12.2014 19:52 11,6 C 10,0 C 91 % 1017,5 hPa 0,0 l/m 0 min 0 min 0 W/m 46,0 km/h (6 Bft)
22.12.2014 19:54 11,6 C 10,0 C 91 % 1017,5 hPa 0,0 l/m 0 min 0 min 0 W/m 37,7 km/h (5 Bft)
22.12.2014 19:56 11,6 C 10,0 C 91 % 1017,5 hPa 0,0 l/m 0 min 0 min 0 W/m 48,1 km/h (6 Bft)
22.12.2014 19:58 11,6 C 10,0 C 91 % 1017,4 hPa 0,0 l/m 0 min 0 min 0 W/m 41,8 km/h (6 Bft)
22.12.2014 20:00 11,6 C 10,0 C 91 % 1017,4 hPa 0,0 l/m 0 min 0 min 0 W/m 52,3 km/h (7 Bft)
22.12.2014 20:02 11,6 C 10,0 C 91 % 1017,3 hPa 0,0 l/m 0 min 0 min 0 W/m 54,4 km/h (7 Bft)
22.12.2014 20:04 11,6 C 10,0 C 91 % 1017,5 hPa 0,0 l/m 0 min 0 min 0 W/m 48,1 km/h (6 Bft)
22.12.2014 20:06 11,6 C 10,0 C 91 % 1017,4 hPa 0,0 l/m 0 min 0 min 0 W/m 52,3 km/h (7 Bft)
22.12.2014 20:08 11,6 C 10,6 C 91 % 1017,6 hPa 0,0 l/m 0 min 0 min 0 W/m 50,2 km/h (7 Bft)
22.12.2014 20:10 11,6 C 10,6 C 91 % 1017,7 hPa 0,0 l/m 0 min 0 min 0 W/m 50,2 km/h (7 Bft)
22.12.2014 20:12 11,7 C 10,0 C 91 % 1017,6 hPa 0,0 l/m 0 min 0 min 0 W/m 52,3 km/h (7 Bft)
22.12.2014 20:14 11,7 C 10,0 C 91 % 1017,7 hPa 0,0 l/m 0 min 0 min 0 W/m 37,7 km/h (5 Bft)
22.12.2014 20:16 11,7 C 10,0 C 91 % 1017,8 hPa 0,0 l/m 0 min 0 min 0 W/m 39,7 km/h (6 Bft)
22.12.2014 20:18 11,7 C 10,0 C 91 % 1017,8 hPa 0,0 l/m 0 min 0 min 0 W/m 37,7 km/h (5 Bft)
22.12.2014 20:20 11,7 C 10,6 C 91 % 1017,8 hPa 0,0 l/m 0 min 0 min 0 W/m 52,3 km/h (7 Bft)
22.12.2014 20:22 11,7 C 10,0 C 91 % 1017,8 hPa 0,0 l/m 0 min 0 min 0 W/m 39,7 km/h (6 Bft)
22.12.2014 20:24 11,7 C 10,0 C 91 % 1017,8 hPa 0,0 l/m 0 min 0 min 0 W/m 39,7 km/h (6 Bft)
22.12.2014 20:26 11,7 C 10,0 C 90 % 1017,8 hPa 0,0 l/m 0 min 0 min 0 W/m 33,5 km/h (5 Bft)
22.12.2014 20:28 11,7 C 10,0 C 90 % 1017,7 hPa 0,0 l/m 0 min 0 min 0 W/m 50,2 km/h (7 Bft)
22.12.2014 20:30 11,7 C 10,0 C 90 % 1017,7 hPa 0,0 l/m 0 min 0 min 0 W/m 48,1 km/h (6 Bft)
22.12.2014 20:32 11,7 C 10,0 C 90 % 1017,6 hPa 0,0 l/m 0 min 0 min 0 W/m 37,7 km/h (5 Bft)
22.12.2014 20:34 11,7 C 10,6 C 90 % 1017,6 hPa 0,0 l/m 0 min 0 min 0 W/m 35,6 km/h (5 Bft)
22.12.2014 20:36 11,7 C 10,6 C 90 % 1017,6 hPa 0,0 l/m 0 min 0 min 0 W/m 37,7 km/h (5 Bft)
22.12.2014 20:38 11,7 C 10,6 C 90 % 1017,5 hPa 0,0 l/m 0 min 0 min 0 W/m 43,9 km/h (6 Bft)
22.12.2014 20:40 11,7 C 10,6 C 90 % 1017,4 hPa 0,0 l/m 0 min 0 min 0 W/m 43,9 km/h (6 Bft)
22.12.2014 20:42 11,7 C 10,0 C 90 % 1017,6 hPa 0,0 l/m 0 min 0 min 0 W/m 33,5 km/h (5 Bft)
22.12.2014 20:44 11,7 C 10,0 C 90 % 1017,6 hPa 0,0 l/m 0 min 0 min 0 W/m 37,7 km/h (5 Bft)
22.12.2014 20:46 11,7 C 10,6 C 90 % 1017,6 hPa 0,0 l/m 0 min 0 min 0 W/m 35,6 km/h (5 Bft)
22.12.2014 20:48 11,7 C 10,0 C 90 % 1017,8 hPa 0,0 l/m 0 min 0 min 0 W/m 41,8 km/h (6 Bft)
22.12.2014 20:50 11,7 C 10,0 C 90 % 1017,8 hPa 0,0 l/m 0 min 0 min 0 W/m 37,7 km/h (5 Bft)
22.12.2014 20:52 11,7 C 10,0 C 90 % 1017,9 hPa 0,0 l/m 0 min 0 min 0 W/m 31,4 km/h (5 Bft)
22.12.2014 20:54 11,7 C 10,0 C 90 % 1017,8 hPa 0,0 l/m 0 min 0 min 0 W/m 41,8 km/h (6 Bft)
22.12.2014 20:56 11,7 C 10,0 C 90 % 1017,8 hPa 0,0 l/m 0 min 0 min 0 W/m 43,9 km/h (6 Bft)
22.12.2014 20:58 11,7 C 10,0 C 91 % 1017,8 hPa 0,0 l/m 0 min 0 min 0 W/m 37,7 km/h (5 Bft)
22.12.2014 21:00 11,7 C 10,0 C 91 % 1017,8 hPa 0,0 l/m 0 min 0 min 0 W/m 37,7 km/h (5 Bft)
22.12.2014 21:02 11,7 C 10,0 C 91 % 1017,6 hPa 0,0 l/m 0 min 0 min 0 W/m 52,3 km/h (7 Bft)
22.12.2014 21:04 11,7 C 10,6 C 91 % 1017,6 hPa 0,0 l/m 0 min 0 min 0 W/m 39,7 km/h (6 Bft)
22.12.2014 21:06 11,7 C 10,6 C 91 % 1017,6 hPa 0,0 l/m 0 min 0 min 0 W/m 39,7 km/h (6 Bft)
22.12.2014 21:08 11,7 C 10,6 C 90 % 1017,6 hPa 0,0 l/m 0 min 0 min 0 W/m 41,8 km/h (6 Bft)
22.12.2014 21:10 11,7 C 10,6 C 90 % 1017,7 hPa 0,0 l/m 0 min 0 min 0 W/m 50,2 km/h (7 Bft)
22.12.2014 21:12 11,7 C 10,6 C 90 % 1017,7 hPa 0,0 l/m 0 min 0 min 0 W/m 37,7 km/h (5 Bft)
22.12.2014 21:14 11,7 C 10,6 C 90 % 1017,6 hPa 0,0 l/m 0 min 0 min 0 W/m 39,7 km/h (6 Bft)
22.12.2014 21:16 11,7 C 10,6 C 90 % 1017,6 hPa 0,0 l/m 0 min 0 min 0 W/m 39,7 km/h (6 Bft)
22.12.2014 21:18 11,7 C 10,0 C 90 % 1017,8 hPa 0,0 l/m 0 min 0 min 0 W/m 46,0 km/h (6 Bft)
22.12.2014 21:20 11,7 C 10,0 C 90 % 1017,7 hPa 0,0 l/m 0 min 0 min 0 W/m 35,6 km/h (5 Bft)
22.12.2014 21:22 11,7 C 10,6 C 90 % 1017,8 hPa 0,0 l/m 0 min 0 min 0 W/m 37,7 km/h (5 Bft)
22.12.2014 21:24 11,7 C 10,0 C 90 % 1017,7 hPa 0,0 l/m 0 min 0 min 0 W/m 37,7 km/h (5 Bft)
22.12.2014 21:26 11,7 C 10,0 C 90 % 1017,6 hPa 0,0 l/m 0 min 0 min 0 W/m 31,4 km/h (5 Bft)
22.12.2014 21:28 11,7 C 10,6 C 90 % 1017,5 hPa 0,0 l/m 0 min 0 min 0 W/m 41,8 km/h (6 Bft)
22.12.2014 21:30 11,7 C 10,6 C 90 % 1017,7 hPa 0,0 l/m 0 min 0 min 0 W/m 39,7 km/h (6 Bft)
22.12.2014 21:32 11,7 C 10,6 C 90 % 1017,6 hPa 0,0 l/m 0 min 0 min 0 W/m 35,6 km/h (5 Bft)
22.12.2014 21:34 11,7 C 10,6 C 90 % 1017,7 hPa 0,0 l/m 0 min 0 min 0 W/m 29,3 km/h (5 Bft)
22.12.2014 21:36 11,7 C 10,0 C 90 % 1017,6 hPa 0,0 l/m 0 min 0 min 0 W/m 37,7 km/h (5 Bft)
22.12.2014 21:38 11,7 C 10,0 C 90 % 1017,7 hPa 0,0 l/m 0 min 0 min 0 W/m 25,1 km/h (4 Bft)
22.12.2014 21:40 11,7 C 10,0 C 90 % 1017,8 hPa 0,0 l/m 0 min 0 min 0 W/m 41,8 km/h (6 Bft)
22.12.2014 21:42 11,7 C 10,0 C 90 % 1017,7 hPa 0,0 l/m 0 min 0 min 0 W/m 33,5 km/h (5 Bft)
22.12.2014 21:44 11,7 C 10,0 C 90 % 1017,8 hPa 0,0 l/m 0 min 0 min 0 W/m 35,6 km/h (5 Bft)
22.12.2014 21:46 11,7 C 10,0 C 90 % 1017,8 hPa 0,0 l/m 0 min 0 min 0 W/m 46,0 km/h (6 Bft)
22.12.2014 21:48 11,7 C 10,0 C 90 % 1017,8 hPa 0,0 l/m 0 min 0 min 0 W/m 41,8 km/h (6 Bft)
22.12.2014 21:50 11,7 C 10,0 C 90 % 1017,7 hPa 0,0 l/m 0 min 0 min 0 W/m 43,9 km/h (6 Bft)
22.12.2014 21:52 11,7 C 10,0 C 90 % 1017,9 hPa 0,0 l/m 0 min 0 min 0 W/m 35,6 km/h (5 Bft)
22.12.2014 21:54 11,7 C 10,0 C 90 % 1018,0 hPa 0,0 l/m 0 min 0 min 0 W/m 41,8 km/h (6 Bft)
22.12.2014 21:56 11,7 C 10,0 C 90 % 1017,8 hPa 0,0 l/m 0 min 0 min 0 W/m 43,9 km/h (6 Bft)
22.12.2014 21:58 11,7 C 10,0 C 90 % 1017,8 hPa 0,0 l/m 0 min 0 min 0 W/m 37,7 km/h (5 Bft)
22.12.2014 22:00 11,7 C 10,0 C 90 % 1017,9 hPa 0,0 l/m 0 min 0 min 0 W/m 41,8 km/h (6 Bft)
22.12.2014 22:02 11,7 C 10,0 C 90 % 1018,0 hPa 0,0 l/m 0 min 0 min 0 W/m 48,1 km/h (6 Bft)
22.12.2014 22:04 11,7 C 10,0 C 89 % 1018,0 hPa 0,0 l/m 0 min 0 min 0 W/m 46,0 km/h (6 Bft)
22.12.2014 22:06 11,7 C 10,6 C 89 % 1018,0 hPa 0,0 l/m 0 min 0 min 0 W/m 52,3 km/h (7 Bft)
22.12.2014 22:08 11,7 C 10,0 C 89 % 1017,9 hPa 0,0 l/m 0 min 0 min 0 W/m 33,5 km/h (5 Bft)
22.12.2014 22:10 11,7 C 10,0 C 89 % 1018,0 hPa 0,0 l/m 0 min 0 min 0 W/m 33,5 km/h (5 Bft)
22.12.2014 22:12 11,7 C 10,0 C 89 % 1017,9 hPa 0,0 l/m 0 min 0 min 0 W/m 39,7 km/h (6 Bft)
22.12.2014 22:14 11,7 C 10,0 C 89 % 1017,9 hPa 0,0 l/m 0 min 0 min 0 W/m 33,5 km/h (5 Bft)
22.12.2014 22:16 11,7 C 10,0 C 89 % 1017,9 hPa 0,0 l/m 0 min 0 min 0 W/m 23,0 km/h (4 Bft)
22.12.2014 22:18 11,7 C 10,0 C 89 % 1017,9 hPa 0,0 l/m 0 min 0 min 0 W/m 23,0 km/h (4 Bft)
22.12.2014 22:20 11,7 C 10,0 C 89 % 1017,8 hPa 0,0 l/m 0 min 0 min 0 W/m 18,8 km/h (3 Bft)
22.12.2014 22:22 11,7 C 10,0 C 89 % 1017,9 hPa 0,0 l/m 0 min 0 min 0 W/m 29,3 km/h (5 Bft)
22.12.2014 22:24 11,7 C 10,0 C 89 % 1017,9 hPa 0,0 l/m 0 min 0 min 0 W/m 37,7 km/h (5 Bft)
22.12.2014 22:26 11,6 C 10,0 C 89 % 1017,9 hPa 0,0 l/m 0 min 0 min 0 W/m 37,7 km/h (5 Bft)
22.12.2014 22:28 11,6 C 10,0 C 89 % 1017,9 hPa 0,0 l/m 0 min 0 min 0 W/m 41,8 km/h (6 Bft)
22.12.2014 22:30 11,6 C 10,0 C 89 % 1018,0 hPa 0,0 l/m 0 min 0 min 0 W/m 37,7 km/h (5 Bft)
22.12.2014 22:32 11,6 C 10,0 C 89 % 1018,0 hPa 0,0 l/m 0 min 0 min 0 W/m 46,0 km/h (6 Bft)
22.12.2014 22:34 11,6 C 10,0 C 89 % 1017,9 hPa 0,0 l/m 0 min 0 min 0 W/m 39,7 km/h (6 Bft)
22.12.2014 22:36 11,6 C 10,0 C 89 % 1017,9 hPa 0,0 l/m 0 min 0 min 0 W/m 52,3 km/h (7 Bft)
22.12.2014 22:38 11,6 C 10,0 C 89 % 1017,8 hPa 0,0 l/m 0 min 0 min 0 W/m 41,8 km/h (6 Bft)
22.12.2014 22:40 11,5 C 10,0 C 89 % 1017,8 hPa 0,0 l/m 0 min 0 min 0 W/m 37,7 km/h (5 Bft)
22.12.2014 22:42 11,5 C 10,0 C 90 % 1017,8 hPa 0,0 l/m 0 min 0 min 0 W/m 39,7 km/h (6 Bft)
22.12.2014 22:44 11,5 C 10,0 C 90 % 1017,7 hPa 0,0 l/m 0 min 0 min 0 W/m 43,9 km/h (6 Bft)
22.12.2014 22:46 11,5 C 10,0 C 90 % 1017,7 hPa 0,0 l/m 0 min 0 min 0 W/m 41,8 km/h (6 Bft)
22.12.2014 22:48 11,4 C 10,0 C 90 % 1017,8 hPa 0,0 l/m 0 min 0 min 0 W/m 52,3 km/h (7 Bft)
22.12.2014 22:50 11,4 C 10,0 C 89 % 1017,7 hPa 0,0 l/m 0 min 0 min 0 W/m 39,7 km/h (6 Bft)
22.12.2014 22:52 11,4 C 10,0 C 89 % 1017,6 hPa 0,0 l/m 0 min 0 min 0 W/m 37,7 km/h (5 Bft)
22.12.2014 22:54 11,4 C 10,0 C 89 % 1017,6 hPa 0,0 l/m 0 min 0 min 0 W/m 43,9 km/h (6 Bft)
22.12.2014 22:56 11,4 C 10,0 C 89 % 1017,6 hPa 0,0 l/m 0 min 0 min 0 W/m 37,7 km/h (5 Bft)
22.12.2014 22:58 11,5 C 10,0 C 89 % 1017,6 hPa 0,0 l/m 0 min 0 min 0 W/m 39,7 km/h (6 Bft)
22.12.2014 23:00 11,5 C 10,0 C 88 % 1017,6 hPa 0,0 l/m 0 min 0 min 0 W/m 35,6 km/h (5 Bft)
22.12.2014 23:02 11,5 C 10,0 C 88 % 1017,7 hPa 0,0 l/m 0 min 0 min 0 W/m 39,7 km/h (6 Bft)
22.12.2014 23:04 11,5 C 10,0 C 88 % 1017,7 hPa 0,0 l/m 0 min 0 min 0 W/m 35,6 km/h (5 Bft)
22.12.2014 23:06 11,5 C 10,0 C 88 % 1017,7 hPa 0,0 l/m 0 min 0 min 0 W/m 41,8 km/h (6 Bft)
22.12.2014 23:08 11,5 C 10,0 C 88 % 1017,8 hPa 0,0 l/m 0 min 0 min 0 W/m 37,7 km/h (5 Bft)
22.12.2014 23:10 11,5 C 10,0 C 88 % 1017,7 hPa 0,0 l/m 0 min 0 min 0 W/m 33,5 km/h (5 Bft)
22.12.2014 23:12 11,5 C 10,0 C 88 % 1017,8 hPa 0,0 l/m 0 min 0 min 0 W/m 37,7 km/h (5 Bft)
22.12.2014 23:14 11,5 C 10,0 C 88 % 1017,6 hPa 0,0 l/m 0 min 0 min 0 W/m 31,4 km/h (5 Bft)
22.12.2014 23:16 11,5 C 10,0 C 87 % 1017,7 hPa 0,0 l/m 0 min 0 min 0 W/m 29,3 km/h (5 Bft)
22.12.2014 23:18 11,5 C 10,0 C 87 % 1017,7 hPa 0,0 l/m 0 min 0 min 0 W/m 37,7 km/h (5 Bft)
22.12.2014 23:20 11,6 C 10,0 C 87 % 1017,7 hPa 0,0 l/m 0 min 0 min 0 W/m 37,7 km/h (5 Bft)
22.12.2014 23:22 11,6 C 10,0 C 87 % 1017,7 hPa 0,0 l/m 0 min 0 min 0 W/m 37,7 km/h (5 Bft)
22.12.2014 23:24 11,6 C 10,0 C 87 % 1017,6 hPa 0,0 l/m 0 min 0 min 0 W/m 31,4 km/h (5 Bft)
22.12.2014 23:26 11,6 C 10,0 C 87 % 1017,6 hPa 0,0 l/m 0 min 0 min 0 W/m 35,6 km/h (5 Bft)
22.12.2014 23:28 11,6 C 10,0 C 87 % 1017,5 hPa 0,0 l/m 0 min 0 min 0 W/m 31,4 km/h (5 Bft)
22.12.2014 23:30 11,5 C 10,0 C 87 % 1017,6 hPa 0,0 l/m 0 min 0 min 0 W/m 31,4 km/h (5 Bft)
22.12.2014 23:32 11,5 C 10,0 C 87 % 1017,5 hPa 0,0 l/m 0 min 0 min 0 W/m 29,3 km/h (5 Bft)
22.12.2014 23:34 11,5 C 10,0 C 87 % 1017,9 hPa 0,0 l/m 0 min 0 min 0 W/m 50,2 km/h (7 Bft)
22.12.2014 23:36 11,5 C 10,0 C 86 % 1017,5 hPa 0,0 l/m 0 min 0 min 0 W/m 37,7 km/h (5 Bft)
22.12.2014 23:38 11,5 C 10,0 C 86 % 1017,6 hPa 0,0 l/m 0 min 0 min 0 W/m 33,5 km/h (5 Bft)
22.12.2014 23:40 11,5 C 10,0 C 86 % 1017,5 hPa 0,0 l/m 0 min 0 min 0 W/m 31,4 km/h (5 Bft)
22.12.2014 23:42 11,5 C 10,0 C 86 % 1017,5 hPa 0,0 l/m 0 min 0 min 0 W/m 35,6 km/h (5 Bft)
22.12.2014 23:44 11,6 C 10,0 C 86 % 1017,6 hPa 0,0 l/m 0 min 0 min 0 W/m 35,6 km/h (5 Bft)
22.12.2014 23:46 11,6 C 10,0 C 86 % 1017,5 hPa 0,0 l/m 0 min 0 min 0 W/m 39,7 km/h (6 Bft)
22.12.2014 23:48 11,6 C 10,0 C 86 % 1017,4 hPa 0,0 l/m 0 min 0 min 0 W/m 37,7 km/h (5 Bft)
22.12.2014 23:50 11,6 C 10,0 C 86 % 1017,5 hPa 0,0 l/m 0 min 0 min 0 W/m 33,5 km/h (5 Bft)
22.12.2014 23:52 11,6 C 10,0 C 86 % 1017,5 hPa 0,0 l/m 0 min 0 min 0 W/m 39,7 km/h (6 Bft)
22.12.2014 23:54 11,6 C 10,0 C 86 % 1017,5 hPa 0,0 l/m 0 min 0 min 0 W/m 41,8 km/h (6 Bft)
22.12.2014 23:56 11,6 C 10,0 C 86 % 1017,5 hPa 0,0 l/m 0 min 0 min 0 W/m 43,9 km/h (6 Bft)
22.12.2014 23:58 11,7 C 10,0 C 86 % 1017,5 hPa 0,0 l/m 0 min 0 min 0 W/m 41,8 km/h (6 Bft)
_ Min-Zeit 00:18 00:00 23:36 13:38 - - - - 22:20
Minimum _ 8,0 C 6,7 C 86 % 1017,2 hPa - - - - 18,8 km/h (3 Bft)
_ Max-Zeit 18:48 18:56 12:06 00:00 00:00 00:00 14:32 12:20 10:12
Maximum _ 11,7 C 10,6 C 94 % 1022,5 hPa 0,0 l/m 0 min 2 min 88 W/m 75,3 km/h
W-SW (9 Bft)
Durchschnitt _ 9,7 C 8,3 C 91 % 1018,9 hPa #0,0 l/m #0 min. #6 min. 21 W/m 43,1 km/h (6 Bft)
© 2015 W. Hausmann